DW6912 Weather Reports


Display with metric or nautical units.
time (UTC)temp
F
wind
direction
speed
MPH
gust
MPH
rain 1hr
in
rain 24hr
in
rain mn
in
humidity
%
barometer
mb
20260902034200 71 160 0.0 0.0 0.14 0.36 0.36 96 1015.0
20260902034100 71 160 0.0 0.0 0.14 0.36 0.36 96 1015.0
20260902033800 71 160 0.0 0.0 0.14 0.36 0.36 96 1015.0
20260902033601 71 160 0.0 0.0 0.14 0.36 0.36 96 1015.0
20260902033503 71 160 0.0 0.0 0.14 0.36 0.36 96 1015.0
20260902033400 71 170 0.0 0.0 0.14 0.36 0.36 96 1014.9
20260902033059 71 170 0.0 0.0 0.13 0.35 0.35 96 1014.8
20260902033004 71 170 0.0 0.0 0.13 0.35 0.35 96 1014.8
20260902032901 71 170 0.0 0.0 0.12 0.34 0.34 96 1014.9
20260902032801 71 170 0.0 0.0 0.12 0.34 0.34 96 1015.1
20260902032701 71 254 0.0 0.0 0.12 0.34 0.34 96 1015.2
20260902032601 71 254 0.0 0.0 0.12 0.34 0.34 96 1015.3
20260902032401 71 254 0.0 0.0 0.11 0.33 0.33 96 1015.4
20260902032301 71 254 0.0 0.0 0.11 0.33 0.33 96 1015.3
20260902032201 71 254 0.0 0.0 0.11 0.33 0.33 96 1015.4
20260902032100 71 254 0.0 0.0 0.10 0.32 0.32 96 1015.4
20260902031901 71 254 0.0 0.0 0.10 0.32 0.32 96 1015.6
20260902031800 71 254 0.0 0.0 0.11 0.32 0.32 96 1015.7
20260902031701 71 254 0.0 0.0 0.10 0.31 0.31 96 1015.8
20260902031602 71 254 0.0 0.0 0.10 0.31 0.31 96 1015.8
20260902031504 71 254 0.0 0.0 0.10 0.30 0.30 96 1015.8
20260902031400 71 254 0.0 0.0 0.10 0.30 0.30 96 1015.9
20260902031300 71 254 0.0 0.0 0.10 0.30 0.30 96 1015.8
20260902031100 71 254 0.0 2.0 0.09 0.29 0.29 96 1015.9
20260902031003 71 254 0.0 2.0 0.09 0.28 0.28 96 1016.1
20260902030901 71 254 0.0 4.0 0.09 0.28 0.28 96 1016.2
20260902030802 72 254 0.0 4.0 0.09 0.28 0.28 96 1016.2
20260902030701 72 254 0.0 4.0 0.09 0.27 0.27 96 1016.4
20260902030600 72 254 0.0 4.0 0.10 0.27 0.27 96 1016.4
20260902030505 72 254 0.0 4.0 0.10 0.26 0.26 96 1016.5
20260902030400 72 254 0.0 4.0 0.10 0.26 0.26 96 1016.4
20260902030301 72 254 0.0 4.0 0.11 0.26 0.26 96 1016.4
20260902030200 72 254 0.0 4.0 0.11 0.25 0.25 96 1016.4
20260902030004 72 254 1.0 4.0 0.10 0.24 0.24 96 1016.5
20260902025900 72 274 1.0 4.0 0.12 0.25 0.24 96 1016.6
20260902025759 72 273 2.0 4.0 0.12 0.25 0.24 96 1016.7
20260902025503 72 301 1.0 4.0 0.13 0.24 0.23 96 1016.7
20260902025401 72 301 2.0 4.0 0.13 0.24 0.23 96 1016.6
20260902025300 72 301 4.0 4.0 0.14 0.24 0.23 96 1016.4
20260902025159 72 299 3.0 4.0 0.15 0.24 0.23 96 1016.2
20260902025100 72 184 2.0 3.0 0.14 0.23 0.22 96 1016.0
20260902024900 72 159 1.0 2.0 0.15 0.23 0.22 96 1015.7
20260902024800 72 159 1.0 2.0 0.16 0.23 0.22 96 1015.6
20260902024701 72 158 2.0 2.0 0.16 0.23 0.22 96 1015.5
20260902024600 72 158 0.0 1.0 0.16 0.23 0.22 96 1015.2
20260902024504 72 158 0.0 1.0 0.16 0.23 0.22 96 1015.2
20260902024400 72 158 0.0 1.0 0.16 0.23 0.22 96 1015.1
20260902024200 72 158 0.0 0.0 0.17 0.23 0.22 96 1014.9
20260902024101 72 158 0.0 0.0 0.17 0.23 0.22 96 1014.7
20260902024004 72 158 0.0 0.0 0.17 0.23 0.22 96 1014.8
20260902023801 72 158 0.0 0.0 0.17 0.23 0.22 96 1014.7
20260902023701 72 158 0.0 0.0 0.17 0.23 0.22 96 1014.7
20260902023601 72 158 0.0 0.0 0.17 0.23 0.22 96 1014.6
20260902023503 72 158 0.0 0.0 0.17 0.23 0.22 96 1014.6
20260902023204 72 158 0.0 0.0 0.17 0.23 0.22 96 1014.5
20260902023100 72 158 0.0 0.0 0.17 0.23 0.22 96 1014.6
20260902023004 72 158 0.0 0.0 0.17 0.23 0.22 96 1014.7
20260902022859 72 158 0.0 1.0 0.17 0.23 0.22 96 1014.8
20260902022800 72 158 0.0 2.0 0.17 0.23 0.22 96 1014.8
20260902022701 72 158 0.0 2.0 0.17 0.23 0.22 97 1014.9
20260902022600 72 158 0.0 2.0 0.17 0.23 0.22 97 1014.9
20260902022503 72 158 0.0 2.0 0.17 0.23 0.22 97 1015.0
20260902022401 72 158 0.0 2.0 0.17 0.23 0.22 97 1015.0
20260902022301 72 158 0.0 2.0 0.17 0.23 0.22 97 1015.0
20260902022200 72 158 0.0 2.0 0.18 0.23 0.22 97 1015.0
20260902022004 72 158 0.0 2.0 0.18 0.23 0.22 97 1015.0
20260902021900 72 158 1.0 1.0 0.18 0.23 0.22 97 1015.0
20260902021701 72 57 1.0 1.0 0.18 0.22 0.21 97 1015.0
20260902021503 72 57 1.0 1.0 0.18 0.21 0.20 97 1015.0
20260902021300 72 57 0.0 1.0 0.19 0.21 0.20 97 1015.0
20260902021200 72 57 0.0 1.0 0.19 0.21 0.20 97 1015.0
20260902021101 72 57 0.0 1.0 0.20 0.21 0.20 97 1015.0
20260902021004 72 57 0.0 1.0 0.19 0.20 0.19 97 1015.1
20260902020800 72 57 0.0 1.0 0.18 0.19 0.18 97 1015.1
20260902020700 72 57 0.0 1.0 0.18 0.19 0.18 96 1015.1
20260902020600 72 57 0.0 1.0 0.17 0.18 0.17 97 1015.2
20260902020401 73 57 0.0 1.0 0.16 0.17 0.16 96 1015.3
20260902020200 73 57 0.0 1.0 0.14 0.15 0.14 96 1015.3
20260902020106 73 57 0.0 2.0 0.14 0.15 0.14 96 1015.2
20260902020005 73 57 0.0 2.0 0.13 0.14 0.13 96 1015.0
20260902015801 73 57 0.0 4.0 0.12 0.13 0.12 96 1015.0
20260902015700 73 57 0.0 4.0 0.11 0.12 0.11 95 1015.0
20260902015600 73 57 0.0 4.0 0.10 0.11 0.10 95 1015.0
20260902015503 73 57 0.0 4.0 0.10 0.11 0.10 95 1015.0
20260902015401 73 57 0.0 4.0 0.10 0.11 0.10 95 1015.0
20260902015301 73 57 0.0 4.0 0.09 0.10 0.09 95 1015.0
20260902015200 73 57 2.0 4.0 0.08 0.09 0.08 94 1015.0
20260902015100 74 58 0.0 8.0 0.08 0.09 0.08 94 1014.9
20260902015004 74 57 4.0 8.0 0.07 0.08 0.07 94 1014.8
20260902014901 74 100 0.0 8.0 0.07 0.08 0.07 94 1014.8
20260902014802 74 66 0.0 11.0 0.06 0.07 0.06 94 1014.8
20260902014701 74 66 1.0 11.0 0.06 0.07 0.06 94 1014.7
20260902014600 74 97 2.0 11.0 0.06 0.07 0.06 93 1014.7
20260902014504 74 98 0.0 11.0 0.06 0.07 0.06 93 1014.6
20260902014300 74 73 1.0 11.0 0.05 0.06 0.05 93 1014.4
20260902014200 74 28 2.0 11.0 0.05 0.06 0.05 93 1014.3
20260902014100 74 92 2.0 11.0 0.05 0.06 0.05 93 1014.3
20260902013901 74 57 9.0 11.0 0.05 0.06 0.05 93 1014.2
20260902013802 74 76 5.0 11.0 0.05 0.06 0.05 93 1014.1
20260902013701 74 17 1.0 16.0 0.05 0.06 0.05 93 1014.0
20260902013603 74 26 1.0 16.0 0.05 0.06 0.05 93 1014.0
20260902013505 74 65 2.0 16.0 0.05 0.06 0.05 93 1014.0
20260902013401 74 32 5.0 16.0 0.05 0.06 0.05 93 1014.1
20260902013307 74 9 3.0 16.0 0.05 0.06 0.05 93 1014.1
20260902013201 74 54 3.0 16.0 0.05 0.06 0.05 93 1014.1
20260902013100 74 43 5.0 16.0 0.05 0.06 0.05 93 1014.1
20260902013005 74 24 3.0 16.0 0.05 0.06 0.05 93 1014.1
20260902012759 74 22 8.0 15.0 0.05 0.06 0.05 94 1014.0
20260902012701 74 19 5.0 15.0 0.05 0.06 0.05 94 1013.9
20260902012503 74 27 11.0 15.0 0.05 0.06 0.05 93 1013.9
20260902012401 74 15 5.0 15.0 0.05 0.06 0.05 93 1013.9
20260902012300 74 69 9.0 20.0 0.05 0.06 0.05 93 1013.9
20260902012100 75 92 7.0 20.0 0.04 0.05 0.04 92 1013.9
20260902012004 75 42 4.0 20.0 0.04 0.05 0.04 92 1014.0
20260902011802 76 13 8.0 20.0 0.04 0.05 0.04 91 1014.0
20260902011700 76 9 5.0 20.0 0.03 0.04 0.03 90 1014.0
20260902011600 76 38 5.0 20.0 0.02 0.03 0.02 89 1014.1
20260902011403 77 17 10.0 20.0 0.02 0.03 0.02 88 1014.2
20260902011307 77 16 9.0 17.0 0.01 0.02 0.01 87 1014.2
20260902011201 78 51 11.0 17.0 0.01 0.02 0.01 87 1014.2
20260902011100 78 34 11.0 15.0 0.00 0.01 0.00 86 1014.2
20260902011004 78 9 9.0 15.0 0.00 0.01 0.00 86 1014.2
20260902010901 78 50 10.0 15.0 0.00 0.01 0.00 86 1014.2
20260902010700 78 5 11.0 13.0 0.00 0.01 0.00 86 1014.1
20260902010600 78 15 5.0 13.0 0.00 0.01 0.00 86 1014.0
20260902010400 78 5 5.0 9.0 0.00 0.01 0.00 85 1013.9
20260902010201 78 84 3.0 5.0 0.00 0.01 0.00 84 1013.9
20260902010100 78 40 3.0 5.0 0.00 0.01 0.00 84 1013.7
20260902010005 78 47 2.0 5.0 0.00 0.01 0.00 83 1013.7
20260902005801 78 156 0.0 3.0 0.00 0.02 0.00 84 1013.3
20260902005705 78 156 1.0 4.0 0.00 0.02 0.00 83 1013.3
20260902005600 78 65 1.0 4.0 0.00 0.02 0.00 83 1013.4
20260902005504 78 65 0.0 5.0 0.00 0.02 0.00 83 1013.3
20260902005401 78 65 0.0 5.0 0.00 0.02 0.00 83 1013.4
20260902005301 78 65 0.0 7.0 0.00 0.02 0.00 83 1013.3
20260902005200 78 65 1.0 7.0 0.00 0.02 0.00 83 1013.4
20260902005100 78 65 1.0 7.0 0.00 0.02 0.00 83 1013.4
20260902005004 78 65 1.0 7.0 0.00 0.02 0.00 83 1013.3
20260902004901 78 65 2.0 7.0 0.00 0.02 0.00 83 1013.3
20260902004801 78 73 0.0 7.0 0.00 0.02 0.00 83 1013.2
20260902004704 78 74 3.0 7.0 0.00 0.02 0.00 83 1013.2
20260902004600 78 77 1.0 7.0 0.00 0.02 0.00 82 1013.3
20260902004507 78 74 5.0 7.0 0.00 0.02 0.00 82 1013.2
20260902004400 78 96 2.0 7.0 0.00 0.02 0.00 82 1013.2
20260902004301 78 72 1.0 5.0 0.00 0.02 0.00 82 1013.2
20260902004200 78 103 1.0 5.0 0.00 0.02 0.00 82 1013.1
20260902004101 78 103 1.0 7.0 0.00 0.02 0.00 82 1013.1
20260902004005 78 103 0.0 7.0 0.00 0.02 0.00 82 1013.1
20260902003902 78 100 0.0 7.0 0.00 0.02 0.00 82 1013.1
20260902003800 78 100 1.0 7.0 0.00 0.02 0.00 82 1013.1
20260902003700 79 78 1.0 7.0 0.00 0.02 0.00 82 1013.2
20260902003600 79 78 1.0 7.0 0.00 0.02 0.00 82 1013.1
20260902003503 79 78 2.0 7.0 0.00 0.02 0.00 82 1013.1
20260902003401 79 71 2.0 7.0 0.00 0.02 0.00 82 1013.0
20260902003300 79 71 1.0 7.0 0.00 0.02 0.00 82 1013.0
20260902003200 79 63 1.0 7.0 0.00 0.02 0.00 82 1013.0
20260902003100 79 130 2.0 8.0 0.00 0.02 0.00 81 1013.0
20260902003004 79 65 2.0 8.0 0.00 0.02 0.00 81 1012.9
20260902002901 79 97 0.0 8.0 0.00 0.02 0.00 81 1012.9
20260902002759 79 88 4.0 8.0 0.00 0.02 0.00 82 1012.8
20260902002600 79 88 1.0 8.0 0.00 0.02 0.00 81 1012.7
20260902002300 79 17 2.0 8.0 0.00 0.02 0.00 81 1012.6
20260902002201 79 148 1.0 8.0 0.00 0.02 0.00 80 1012.6
20260902002101 80 95 1.0 8.0 0.00 0.02 0.00 80 1012.6
20260902001900 80 79 2.0 13.0 0.00 0.02 0.00 80 1012.6
20260902001800 80 88 2.0 13.0 0.00 0.02 0.00 80 1012.5
20260902001701 80 71 1.0 13.0 0.00 0.02 0.00 80 1012.5
20260902001502 80 69 0.0 13.0 0.00 0.02 0.00 80 1012.4
20260902001400 80 69 4.0 13.0 0.00 0.02 0.00 80 1012.4
20260902001301 80 88 1.0 13.0 0.00 0.02 0.00 79 1012.4
20260902001201 80 184 2.0 13.0 0.00 0.02 0.00 79 1012.4
20260902001101 80 73 7.0 13.0 0.00 0.02 0.00 79 1012.3
20260902001004 81 5 5.0 13.0 0.00 0.02 0.00 79 1012.3
20260902000800 81 338 3.0 13.0 0.00 0.02 0.00 80 1012.4
20260902000700 81 84 2.0 13.0 0.00 0.02 0.00 80 1012.4
20260902000600 81 80 3.0 13.0 0.00 0.02 0.00 79 1012.4
20260902000402 81 43 2.0 13.0 0.00 0.02 0.00 79 1012.4
20260902000301 81 94 2.0 13.0 0.00 0.02 0.00 80 1012.3
20260902000204 81 59 4.0 13.0 0.00 0.02 0.00 80 1012.4
20260902000101 82 63 3.0 12.0 0.00 0.02 0.00 82 1012.3
20260902000004 82 213 2.0 12.0 0.00 0.02 0.00 84 1012.4
20260901235901 82 24 4.0 12.0 0.00 0.02 0.00 89 1012.4
20260901235800 82 295 2.0 5.0 0.00 0.02 0.00 90 1012.4
20260901235701 82 62 2.0 5.0 0.00 0.02 0.00 90 1012.3
20260901235600 82 69 4.0 4.0 0.00 0.02 0.00 90 1012.3
20260901235504 82 110 3.0 3.0 0.00 0.02 0.00 89 1012.2
20260901235401 82 203 0.0 0.0 0.00 0.02 0.00 89 1012.1
20260901235300 82 209 0.0 0.0 0.00 0.02 0.00 89 1012.1
20260901235200 83 209 0.0 0.0 0.00 0.02 0.00 89 1012.1
20260901235101 83 209 0.0 0.0 0.00 0.02 0.00 89 1012.0
20260901235004 83 209 0.0 0.0 0.00 0.02 0.00 88 1012.0
20260901234901 83 209 0.0 0.0 0.00 0.02 0.00 88 1011.9
20260901234803 83 209 0.0 0.0 0.00 0.02 0.00 88 1011.9
20260901234600 83 209 0.0 0.0 0.00 0.02 0.00 88 1011.9
20260901234504 83 209 0.0 0.0 0.00 0.02 0.00 88 1011.7
20260901234300 83 209 0.0 0.0 0.00 0.02 0.00 87 1011.6
20260901234200 83 209 0.0 0.0 0.00 0.02 0.00 87 1011.6
20260901234102 83 209 0.0 0.0 0.00 0.02 0.00 87 1011.6
20260901234004 83 209 0.0 0.0 0.00 0.02 0.00 87 1011.6
20260901233900 83 209 0.0 0.0 0.00 0.02 0.00 87 1011.5
20260901233800 83 209 0.0 0.0 0.00 0.02 0.00 87 1011.5
20260901233702 84 209 0.0 0.0 0.00 0.02 0.00 86 1011.5
20260901233600 84 209 0.0 0.0 0.00 0.02 0.00 86 1011.6
20260901233503 84 209 0.0 0.0 0.00 0.02 0.00 86 1011.6
20260901233400 84 209 0.0 0.0 0.00 0.02 0.00 86 1011.6
20260901233200 84 209 0.0 0.0 0.00 0.02 0.00 86 1011.6
20260901233104 84 209 0.0 0.0 0.00 0.02 0.00 86 1011.6
20260901233004 84 209 0.0 0.0 0.00 0.02 0.00 86 1011.6
20260901232800 84 209 0.0 0.0 0.00 0.02 0.00 85 1011.6
20260901232659 84 209 0.0 0.0 0.00 0.02 0.00 85 1011.6
20260901232600 84 209 0.0 0.0 0.00 0.02 0.00 85 1011.7
20260901232504 84 209 0.0 0.0 0.00 0.02 0.00 85 1011.6
20260901232301 84 209 0.0 0.0 0.00 0.02 0.00 84 1011.6
20260901232200 84 209 0.0 0.0 0.00 0.02 0.00 84 1011.6
20260901232101 85 209 0.0 0.0 0.00 0.02 0.00 84 1011.6
20260901232004 85 209 0.0 0.0 0.00 0.02 0.00 84 1011.5
20260901231900 85 209 0.0 0.0 0.00 0.02 0.00 84 1011.5
20260901231800 85 209 0.0 0.0 0.00 0.02 0.00 84 1011.5
20260901231600 85 209 0.0 0.0 0.00 0.02 0.00 83 1011.5
20260901231503 85 209 0.0 0.0 0.00 0.02 0.00 83 1011.5
20260901231301 85 209 0.0 0.0 0.00 0.02 0.00 83 1011.6
20260901231200 85 209 0.0 0.0 0.00 0.02 0.00 83 1011.5
20260901231003 85 209 0.0 0.0 0.00 0.02 0.00 83 1011.5
20260901230901 85 209 0.0 0.0 0.00 0.02 0.00 83 1011.5
20260901230800 85 209 0.0 0.0 0.00 0.02 0.00 83 1011.6
20260901230700 85 209 0.0 0.0 0.00 0.02 0.00 82 1011.6
20260901230600 85 209 0.0 0.0 0.00 0.02 0.00 82 1011.6
20260901230504 86 209 0.0 0.0 0.00 0.02 0.00 82 1011.6
20260901230400 86 209 0.0 0.0 0.00 0.02 0.00 83 1011.6
20260901230301 86 209 0.0 0.0 0.00 0.02 0.00 82 1011.6
20260901230201 86 209 0.0 0.0 0.00 0.02 0.00 82 1011.6
20260901230100 86 209 0.0 0.0 0.00 0.02 0.00 82 1011.7
20260901230004 86 209 0.0 0.0 0.00 0.02 0.00 82 1011.7
20260901225901 86 209 0.0 0.0 0.00 0.02 0.00 82 1011.7
20260901225703 86 209 0.0 0.0 0.00 0.02 0.00 82 1011.6
20260901225600 86 209 0.0 0.0 0.00 0.02 0.00 81 1011.6
20260901225507 86 209 0.0 0.0 0.00 0.02 0.00 81 1011.6
20260901225300 86 209 0.0 0.0 0.00 0.02 0.00 81 1011.6
20260901225200 86 209 0.0 0.0 0.00 0.02 0.00 81 1011.6
20260901225101 86 209 0.0 2.0 0.00 0.02 0.00 81 1011.6
20260901225003 86 209 0.0 2.0 0.00 0.02 0.00 81 1011.6
20260901224901 86 209 0.0 2.0 0.00 0.02 0.00 81 1011.5
20260901224800 86 209 0.0 2.0 0.00 0.02 0.00 81 1011.5
20260901224659 86 209 0.0 2.0 0.00 0.02 0.00 81 1011.4
20260901224600 86 209 0.0 2.0 0.00 0.02 0.00 82 1011.4
20260901224504 86 209 0.0 2.0 0.00 0.02 0.00 82 1011.4
20260901224401 86 209 0.0 2.0 0.00 0.02 0.00 82 1011.3
20260901224301 86 209 0.0 2.0 0.00 0.02 0.00 82 1011.4
20260901224201 86 209 1.0 2.0 0.00 0.02 0.00 82 1011.4
20260901224100 86 209 1.0 2.0 0.00 0.02 0.00 82 1011.4
20260901224004 86 209 0.0 2.0 0.00 0.02 0.00 81 1011.4
20260901223900 86 209 0.0 2.0 0.00 0.02 0.00 82 1011.4
20260901223801 86 209 1.0 2.0 0.00 0.02 0.00 82 1011.3
20260901223700 86 209 0.0 2.0 0.00 0.02 0.00 81 1011.4
20260901223504 86 209 0.0 2.0 0.00 0.02 0.00 82 1011.4
20260901223359 86 209 0.0 2.0 0.00 0.02 0.00 81 1011.4
20260901223300 86 209 0.0 4.0 0.00 0.02 0.00 82 1011.4
20260901223201 86 209 0.0 4.0 0.00 0.02 0.00 81 1011.5
20260901223005 87 209 0.0 4.0 0.00 0.02 0.00 81 1011.4
20260901222901 87 209 0.0 4.0 0.00 0.02 0.00 81 1011.4
20260901222801 87 209 0.0 4.0 0.00 0.02 0.00 82 1011.4
20260901222701 87 209 0.0 4.0 0.00 0.02 0.00 83 1011.4
20260901222601 87 209 0.0 4.0 0.00 0.02 0.00 83 1011.4
20260901222502 87 209 0.0 4.0 0.00 0.02 0.00 83 1011.4
20260901222400 87 209 3.0 4.0 0.00 0.02 0.00 80 1011.4
20260901222200 87 245 0.0 1.0 0.00 0.02 0.00 80 1011.4
20260901222101 88 245 0.0 1.0 0.00 0.02 0.00 80 1011.4
20260901222004 88 245 0.0 0.0 0.00 0.02 0.00 79 1011.4
20260901221900 88 246 0.0 0.0 0.00 0.02 0.00 78 1011.4
20260901221801 88 245 0.0 1.0 0.00 0.02 0.00 78 1011.3
20260901221700 88 245 0.0 1.0 0.00 0.02 0.00 78 1011.3
20260901221600 88 246 0.0 1.0 0.00 0.02 0.00 78 1011.3
20260901221400 88 246 0.0 1.0 0.00 0.02 0.00 79 1011.3
20260901221300 88 246 0.0 1.0 0.00 0.02 0.00 79 1011.3
20260901221200 88 245 0.0 1.0 0.00 0.02 0.00 78 1011.3
20260901221100 88 245 0.0 1.0 0.00 0.02 0.00 78 1011.3
20260901221004 88 245 0.0 1.0 0.00 0.02 0.00 78 1011.3
20260901220901 88 245 0.0 1.0 0.00 0.02 0.00 78 1011.3
20260901220801 88 246 0.0 0.0 0.00 0.02 0.00 78 1011.3
20260901220701 88 246 0.0 0.0 0.00 0.02 0.00 77 1011.4
20260901220600 88 246 0.0 0.0 0.00 0.02 0.00 78 1011.4
20260901220503 88 245 0.0 1.0 0.00 0.02 0.00 78 1011.5
20260901220401 88 245 0.0 1.0 0.00 0.02 0.00 78 1011.4
20260901220301 88 245 0.0 2.0 0.00 0.02 0.00 78 1011.4
20260901220201 88 246 0.0 2.0 0.00 0.02 0.00 78 1011.3
20260901220100 88 246 0.0 2.0 0.00 0.02 0.00 78 1011.3
20260901220004 88 246 0.0 2.0 0.00 0.02 0.00 78 1011.3
20260901215759 88 245 0.0 2.0 0.00 0.02 0.00 78 1011.2
20260901215559 88 245 1.0 3.0 0.00 0.02 0.00 79 1011.2
20260901215300 88 249 0.0 3.0 0.00 0.02 0.00 78 1011.1
20260901215159 88 249 0.0 3.0 0.00 0.02 0.00 78 1011.1
20260901215100 88 249 0.0 3.0 0.00 0.02 0.00 78 1011.1
20260901214859 88 249 0.0 3.0 0.00 0.02 0.00 79 1011.0
20260901214759 88 249 1.0 3.0 0.00 0.02 0.00 77 1011.0
20260901214659 88 249 1.0 2.0 0.00 0.02 0.00 80 1011.0
20260901214559 88 249 1.0 2.0 0.00 0.02 0.00 77 1011.0
20260901214358 88 249 0.0 2.0 0.00 0.02 0.00 79 1011.1
20260901214259 88 249 0.0 2.0 0.00 0.02 0.00 79 1011.1
20260901214100 88 249 0.0 2.0 0.00 0.02 0.00 79 1011.1
20260901214002 88 249 0.0 2.0 0.00 0.02 0.00 79 1011.1
20260901213900 88 249 1.0 2.0 0.00 0.02 0.00 77 1011.1
20260901213759 88 249 0.0 2.0 0.00 0.02 0.00 78 1011.1
20260901213600 89 249 1.0 2.0 0.00 0.02 0.00 79 1011.1
20260901213401 89 249 0.0 1.0 0.00 0.02 0.00 79 1011.2
20260901213259 89 249 0.0 2.0 0.00 0.02 0.00 79 1011.2
20260901213159 89 249 0.0 2.0 0.00 0.02 0.00 79 1011.2
20260901213100 89 249 1.0 2.0 0.00 0.02 0.00 80 1011.2
20260901213003 89 249 0.0 2.0 0.00 0.02 0.00 78 1011.3
20260901212900 89 249 0.0 2.0 0.00 0.02 0.00 77 1011.3
20260901212800 89 249 0.0 2.0 0.00 0.02 0.00 77 1011.3
20260901212659 89 249 0.0 2.0 0.00 0.02 0.00 77 1011.4
20260901212559 89 249 1.0 2.0 0.00 0.02 0.00 78 1011.3
20260901212504 89 249 0.0 2.0 0.00 0.02 0.00 77 1011.4
20260901212400 89 249 1.0 2.0 0.00 0.02 0.00 77 1011.4
20260901212259 89 249 0.0 2.0 0.00 0.02 0.00 77 1011.4
20260901212159 89 249 0.0 2.0 0.00 0.02 0.00 77 1011.4
20260901212100 89 249 0.0 2.0 0.00 0.02 0.00 77 1011.4
20260901212000 89 249 0.0 2.0 0.00 0.02 0.00 77 1011.4
20260901211859 89 249 0.0 2.0 0.00 0.02 0.00 76 1011.4
20260901211759 89 249 0.0 2.0 0.00 0.02 0.00 76 1011.4
20260901211600 89 249 0.0 2.0 0.00 0.02 0.00 76 1011.4
20260901211503 89 249 1.0 2.0 0.00 0.02 0.00 75 1011.4
20260901211359 89 250 1.0 2.0 0.00 0.02 0.00 76 1011.3
20260901211200 89 248 1.0 2.0 0.00 0.02 0.00 79 1011.3
20260901211059 89 248 0.0 2.0 0.00 0.02 0.00 77 1011.3
20260901211000 89 248 1.0 2.0 0.00 0.02 0.00 77 1011.3
20260901210900 89 248 0.0 2.0 0.00 0.02 0.00 78 1011.3
20260901210800 89 248 0.0 2.0 0.00 0.02 0.00 78 1011.3
20260901210700 89 248 0.0 2.0 0.00 0.02 0.00 77 1011.3
20260901210559 89 248 1.0 2.0 0.00 0.02 0.00 76 1011.3
20260901210503 89 248 0.0 2.0 0.00 0.02 0.00 76 1011.3
20260901210403 89 248 0.0 2.0 0.00 0.02 0.00 75 1011.4
20260901210159 90 248 0.0 2.0 0.00 0.02 0.00 77 1011.4
20260901210059 90 248 0.0 2.0 0.00 0.02 0.00 79 1011.4
20260901210005 90 248 0.0 2.0 0.00 0.02 0.00 78 1011.4
20260901205859 90 248 0.0 2.0 0.00 0.02 0.00 78 1011.4
20260901205800 90 248 1.0 3.0 0.00 0.02 0.00 76 1011.4
20260901205700 90 248 2.0 4.0 0.00 0.02 0.00 76 1011.4
20260901205600 90 253 1.0 4.0 0.00 0.02 0.00 74 1011.5
20260901205502 90 253 1.0 4.0 0.00 0.02 0.00 74 1011.5
20260901205359 90 253 0.0 4.0 0.00 0.02 0.00 76 1011.5
20260901205100 90 253 0.0 4.0 0.00 0.02 0.00 74 1011.5
20260901204859 90 253 1.0 4.0 0.00 0.02 0.00 74 1011.5
20260901204759 90 253 1.0 4.0 0.00 0.02 0.00 74 1011.5
20260901204559 90 248 0.0 4.0 0.00 0.02 0.00 75 1011.6
20260901204504 90 248 0.0 4.0 0.00 0.02 0.00 77 1011.5
20260901204400 90 248 0.0 4.0 0.00 0.02 0.00 79 1011.6
20260901204300 90 248 0.0 4.0 0.00 0.02 0.00 77 1011.6
20260901204200 91 248 1.0 4.0 0.00 0.02 0.00 73 1011.6
20260901204101 90 248 2.0 4.0 0.00 0.02 0.00 72 1011.6
20260901204001 90 261 1.0 3.0 0.00 0.02 0.00 74 1011.6
20260901203859 90 261 0.0 3.0 0.00 0.02 0.00 73 1011.6
20260901203700 90 261 3.0 3.0 0.00 0.02 0.00 73 1011.6
20260901203559 90 263 1.0 2.0 0.00 0.02 0.00 74 1011.6
20260901203504 90 263 0.0 3.0 0.00 0.02 0.00 76 1011.6
20260901203400 90 263 0.0 4.0 0.00 0.02 0.00 76 1011.6
20260901203300 90 263 0.0 4.0 0.00 0.02 0.00 76 1011.7
20260901203200 91 263 1.0 4.0 0.00 0.02 0.00 79 1011.6
20260901203004 91 268 0.0 4.0 0.00 0.02 0.00 79 1011.6
20260901202900 91 268 0.0 4.0 0.00 0.02 0.00 78 1011.6
20260901202759 91 268 2.0 4.0 0.00 0.02 0.00 74 1011.6
20260901202700 91 268 0.0 4.0 0.00 0.02 0.00 73 1011.6
20260901202602 91 268 1.0 4.0 0.00 0.02 0.00 73 1011.6
20260901202503 91 268 1.0 4.0 0.00 0.02 0.00 74 1011.7
20260901202400 90 260 2.0 3.0 0.00 0.02 0.00 75 1011.7
20260901202302 90 260 0.0 3.0 0.00 0.02 0.00 76 1011.7
20260901202100 90 260 0.0 3.0 0.00 0.02 0.00 75 1011.8
20260901202003 90 260 0.0 3.0 0.00 0.02 0.00 74 1011.7
20260901201900 90 260 1.0 3.0 0.00 0.02 0.00 75 1011.7
20260901201759 90 259 0.0 0.0 0.00 0.02 0.00 78 1011.7
20260901201700 90 259 0.0 0.0 0.00 0.02 0.00 78 1011.7
20260901201600 90 259 0.0 0.0 0.00 0.02 0.00 78 1011.8
20260901201500 90 259 0.0 0.0 0.00 0.02 0.00 79 1011.8
20260901201359 90 259 0.0 0.0 0.00 0.02 0.00 78 1011.8
20260901201300 90 259 0.0 0.0 0.00 0.02 0.00 78 1011.7
20260901201200 90 259 0.0 0.0 0.00 0.02 0.00 81 1011.7
20260901201004 90 259 0.0 0.0 0.00 0.02 0.00 80 1011.8
20260901200900 90 259 0.0 0.0 0.00 0.02 0.00 80 1011.9
20260901200800 90 259 0.0 0.0 0.00 0.02 0.00 79 1011.9
20260901200701 90 259 0.0 0.0 0.00 0.02 0.00 78 1011.9
20260901200502 89 259 0.0 0.0 0.00 0.02 0.00 78 1011.9
20260901200401 89 259 0.0 0.0 0.00 0.02 0.00 78 1011.9
20260901200300 89 259 0.0 0.0 0.00 0.02 0.00 79 1011.9
20260901200159 89 259 0.0 0.0 0.00 0.02 0.00 78 1011.9
20260901200059 89 259 0.0 0.0 0.00 0.02 0.00 78 1011.9
20260901200008 89 259 0.0 0.0 0.00 0.02 0.00 78 1011.9
20260901195900 89 259 0.0 0.0 0.00 0.02 0.00 80 1011.9
20260901195802 89 259 0.0 0.0 0.00 0.02 0.00 81 1011.9
20260901195604 89 259 0.0 0.0 0.00 0.02 0.00 81 1012.0
20260901195504 89 259 0.0 0.0 0.00 0.02 0.00 81 1012.0
20260901195401 89 259 0.0 0.0 0.00 0.02 0.00 81 1012.0
20260901195300 89 259 0.0 0.0 0.00 0.02 0.00 81 1012.0
20260901195201 89 259 0.0 0.0 0.00 0.02 0.00 81 1012.0
20260901195101 89 259 0.0 0.0 0.00 0.02 0.00 80 1012.0
20260901195004 89 259 0.0 0.0 0.00 0.02 0.00 79 1012.0
20260901194900 88 259 0.0 0.0 0.00 0.02 0.00 78 1012.0
20260901194800 88 259 0.0 0.0 0.00 0.02 0.00 78 1012.1
20260901194600 88 259 0.0 0.0 0.00 0.02 0.00 80 1012.1
20260901194505 88 259 0.0 0.0 0.00 0.02 0.00 83 1012.0
20260901194401 88 259 0.0 1.0 0.00 0.02 0.00 83 1012.1
20260901194300 88 259 0.0 1.0 0.00 0.02 0.00 82 1012.2
20260901194201 88 259 0.0 1.0 0.00 0.02 0.00 82 1012.2
20260901194004 88 259 0.0 1.0 0.00 0.02 0.00 81 1012.2
20260901193901 88 259 0.0 1.0 0.00 0.02 0.00 82 1012.3
20260901193701 88 259 0.0 2.0 0.00 0.02 0.00 81 1012.3
20260901193601 88 259 0.0 2.0 0.00 0.02 0.00 81 1012.3
20260901193503 88 259 0.0 2.0 0.00 0.02 0.00 81 1012.4
20260901193400 88 259 0.0 2.0 0.00 0.02 0.00 80 1012.4
20260901193300 88 259 0.0 2.0 0.00 0.02 0.00 80 1012.4
20260901193202 88 259 0.0 2.0 0.00 0.02 0.00 81 1012.3
20260901193004 88 259 0.0 2.0 0.00 0.02 0.00 79 1012.4
20260901192900 88 259 0.0 2.0 0.00 0.02 0.00 79 1012.4
20260901192700 88 259 1.0 2.0 0.00 0.02 0.00 79 1012.4
20260901192603 88 259 1.0 2.0 0.00 0.02 0.00 82 1012.4
20260901192504 88 259 1.0 2.0 0.00 0.02 0.00 81 1012.4
20260901192300 88 259 0.0 2.0 0.00 0.02 0.00 82 1012.5
20260901192200 88 259 0.0 2.0 0.00 0.02 0.00 81 1012.5
20260901192102 88 259 0.0 2.0 0.00 0.02 0.00 80 1012.5
20260901192004 88 259 0.0 2.0 0.00 0.02 0.00 78 1012.5
20260901191901 88 259 0.0 2.0 0.00 0.02 0.00 79 1012.5
20260901191800 88 259 1.0 2.0 0.00 0.02 0.00 78 1012.5
20260901191701 88 259 1.0 1.0 0.00 0.02 0.00 80 1012.5
20260901191601 88 259 0.0 0.0 0.00 0.02 0.00 79 1012.5
20260901191504 88 259 0.0 0.0 0.00 0.02 0.00 80 1012.5
20260901191401 88 259 0.0 1.0 0.00 0.02 0.00 81 1012.5
20260901191302 88 259 0.0 2.0 0.00 0.02 0.00 82 1012.5
20260901191200 88 259 0.0 2.0 0.00 0.02 0.00 82 1012.5
20260901191101 88 259 0.0 6.0 0.00 0.02 0.00 81 1012.5
20260901190901 88 259 0.0 6.0 0.00 0.02 0.00 81 1012.5
20260901190802 88 259 0.0 6.0 0.00 0.02 0.00 80 1012.6
20260901190659 88 259 0.0 6.0 0.00 0.02 0.00 78 1012.5
20260901190600 88 259 0.0 6.0 0.00 0.02 0.00 79 1012.6
20260901190503 88 259 0.0 6.0 0.00 0.02 0.00 79 1012.6
20260901190301 88 259 1.0 6.0 0.00 0.02 0.00 79 1012.5
20260901190200 88 259 1.0 6.0 0.00 0.02 0.00 77 1012.6
20260901190004 89 261 0.0 4.0 0.00 0.02 0.00 77 1012.6
20260901185859 89 261 0.0 4.0 0.00 0.02 0.00 78 1012.7
20260901185758 89 261 0.0 4.0 0.00 0.02 0.00 77 1012.8
20260901185659 89 261 0.0 4.0 0.00 0.02 0.00 78 1012.8
20260901185559 89 261 0.0 4.0 0.00 0.02 0.00 77 1012.8
20260901185503 89 261 2.0 4.0 0.00 0.02 0.00 76 1012.8
20260901185359 89 261 1.0 4.0 0.00 0.02 0.00 76 1012.8
20260901185259 89 253 0.0 4.0 0.00 0.02 0.00 77 1012.8
20260901185158 89 253 2.0 4.0 0.00 0.02 0.00 79 1012.8
20260901185004 89 257 2.0 4.0 0.00 0.02 0.00 77 1012.9
20260901184859 89 260 2.0 4.0 0.00 0.02 0.00 77 1012.9
20260901184600 89 242 1.0 4.0 0.00 0.02 0.00 78 1012.8
20260901184504 89 263 0.0 3.0 0.00 0.02 0.00 77 1012.9
20260901184400 89 263 1.0 3.0 0.00 0.02 0.00 77 1012.8
20260901184059 89 292 2.0 3.0 0.00 0.02 0.00 79 1012.9
20260901183859 89 298 1.0 3.0 0.00 0.02 0.00 77 1012.9
20260901183758 89 298 2.0 3.0 0.00 0.02 0.00 76 1013.0
20260901183700 89 298 2.0 3.0 0.00 0.02 0.00 77 1012.9
20260901183400 89 247 0.0 3.0 0.00 0.02 0.00 78 1012.9
20260901183259 89 194 2.0 3.0 0.00 0.02 0.00 79 1012.9
20260901183159 89 194 0.0 2.0 0.00 0.02 0.00 80 1012.9
20260901183100 89 194 1.0 2.0 0.00 0.02 0.00 79 1012.9
20260901183002 89 194 0.0 2.0 0.00 0.02 0.00 80 1012.9
20260901182900 89 194 0.0 2.0 0.00 0.02 0.00 79 1012.9
20260901182759 89 194 1.0 3.0 0.00 0.02 0.00 80 1012.9
20260901182701 89 194 1.0 3.0 0.00 0.02 0.00 80 1012.9
20260901182601 88 194 1.0 3.0 0.00 0.02 0.00 80 1013.0
20260901182500 88 194 2.0 3.0 0.00 0.02 0.00 80 1013.0
20260901182400 88 194 0.0 3.0 0.00 0.02 0.00 80 1013.0
20260901182259 88 194 0.0 3.0 0.00 0.02 0.00 80 1013.0
20260901182159 88 194 0.0 3.0 0.00 0.02 0.00 81 1013.0
20260901182100 88 194 0.0 3.0 0.00 0.02 0.00 82 1013.0
20260901182002 88 194 1.0 3.0 0.00 0.02 0.00 80 1013.1
20260901181859 88 222 2.0 3.0 0.00 0.02 0.00 82 1013.1
20260901181801 88 222 1.0 3.0 0.00 0.02 0.00 80 1013.1
20260901181659 88 222 0.0 3.0 0.00 0.02 0.00 80 1013.1
20260901181400 88 222 1.0 8.0 0.00 0.02 0.00 78 1013.1
20260901181259 88 222 0.0 8.0 0.00 0.02 0.00 79 1013.1
20260901181059 88 221 1.0 8.0 0.00 0.02 0.00 77 1013.1
20260901181003 88 221 1.0 8.0 0.00 0.02 0.00 78 1013.1
20260901180659 89 222 1.0 8.0 0.00 0.02 0.00 77 1013.1
20260901180601 89 261 7.0 8.0 0.00 0.02 0.00 77 1013.1
20260901180500 89 279 2.0 5.0 0.00 0.02 0.00 76 1013.1
20260901180359 89 282 1.0 5.0 0.00 0.02 0.00 76 1013.2
20260901180059 89 273 1.0 4.0 0.00 0.02 0.00 77 1013.2
20260901180005 89 274 2.0 3.0 0.00 0.02 0.00 77 1013.2
20260901175859 89 259 1.0 4.0 0.00 0.02 0.00 77 1013.1
20260901175759 88 259 1.0 4.0 0.00 0.02 0.00 79 1013.1
20260901175659 88 259 1.0 4.0 0.00 0.02 0.00 79 1013.1
20260901175601 88 259 1.0 4.0 0.00 0.02 0.00 79 1013.2
20260901175503 88 159 0.0 4.0 0.00 0.02 0.00 78 1013.2
20260901175359 88 159 2.0 4.0 0.00 0.02 0.00 80 1013.2
20260901175300 88 148 2.0 4.0 0.00 0.02 0.00 81 1013.1
20260901175201 88 150 3.0 4.0 0.00 0.02 0.00 78 1013.1
20260901175059 88 265 0.0 4.0 0.00 0.02 0.00 78 1013.1
20260901175003 88 265 0.0 4.0 0.00 0.02 0.00 78 1013.1
20260901174859 88 275 4.0 4.0 0.00 0.02 0.00 79 1013.1
20260901174800 88 229 0.0 3.0 0.00 0.02 0.00 80 1013.1
20260901174700 88 229 1.0 3.0 0.00 0.02 0.00 81 1013.0
20260901174601 88 229 0.0 3.0 0.00 0.02 0.00 82 1013.1
20260901174503 87 229 0.0 6.0 0.00 0.02 0.00 81 1013.1
20260901174400 87 229 0.0 6.0 0.00 0.02 0.00 81 1013.1
20260901174300 87 229 1.0 6.0 0.00 0.02 0.00 82 1013.1
20260901174200 87 229 1.0 6.0 0.00 0.02 0.00 81 1013.1
20260901174059 87 229 1.0 6.0 0.00 0.02 0.00 80 1013.1
20260901174000 87 229 0.0 6.0 0.00 0.02 0.00 82 1013.1
20260901173900 87 229 0.0 6.0 0.00 0.02 0.00 82 1013.2
20260901173759 87 258 1.0 6.0 0.00 0.02 0.00 79 1013.2
20260901173659 87 261 1.0 6.0 0.00 0.02 0.00 78 1013.1
20260901173600 87 263 2.0 6.0 0.00 0.02 0.00 78 1013.2
20260901173503 87 298 1.0 3.0 0.00 0.02 0.00 79 1013.2
20260901173400 87 298 2.0 3.0 0.00 0.02 0.00 80 1013.3
20260901173300 87 176 0.0 3.0 0.00 0.02 0.00 79 1013.2
20260901173159 87 176 0.0 3.0 0.00 0.02 0.00 80 1013.3
20260901173100 87 176 1.0 3.0 0.00 0.02 0.00 82 1013.3
20260901173004 87 175 2.0 3.0 0.00 0.02 0.00 82 1013.3
20260901172900 87 175 2.0 3.0 0.00 0.02 0.00 82 1013.3
20260901172700 87 172 2.0 3.0 0.00 0.02 0.00 82 1013.3
20260901172600 87 256 0.0 3.0 0.00 0.02 0.00 81 1013.2
20260901172503 87 256 0.0 3.0 0.00 0.02 0.00 81 1013.3
20260901172400 86 256 0.0 3.0 0.00 0.02 0.00 80 1013.3
20260901172304 86 256 1.0 3.0 0.00 0.02 0.00 80 1013.3
20260901172159 86 250 2.0 3.0 0.00 0.02 0.00 80 1013.3
20260901172059 87 250 2.0 3.0 0.00 0.02 0.00 81 1013.3
20260901171859 86 262 2.0 3.0 0.00 0.02 0.00 80 1013.3
20260901171800 86 254 0.0 3.0 0.00 0.02 0.00 80 1013.3
20260901171659 86 254 2.0 3.0 0.00 0.02 0.00 81 1013.3
20260901171600 86 254 2.0 3.0 0.00 0.02 0.00 81 1013.3
20260901171503 86 244 1.0 3.0 0.00 0.02 0.00 82 1013.3
20260901171400 86 243 2.0 3.0 0.00 0.02 0.00 82 1013.3
20260901171259 86 156 1.0 3.0 0.00 0.02 0.00 83 1013.3
20260901171159 86 156 1.0 3.0 0.00 0.02 0.00 82 1013.3
20260901171101 86 149 0.0 4.0 0.00 0.02 0.00 82 1013.3
20260901171004 86 149 0.0 4.0 0.00 0.02 0.00 82 1013.3
20260901170900 86 148 2.0 4.0 0.00 0.02 0.00 81 1013.3
20260901170700 86 277 2.0 4.0 0.00 0.02 0.00 82 1013.2
20260901170600 86 277 2.0 4.0 0.00 0.02 0.00 82 1013.2
20260901170503 86 277 1.0 4.0 0.00 0.02 0.00 83 1013.1
20260901170359 85 277 1.0 4.0 0.00 0.02 0.00 83 1013.2
20260901170300 85 277 0.0 4.0 0.00 0.02 0.00 82 1013.1
20260901170200 85 277 0.0 4.0 0.00 0.02 0.00 82 1013.1
20260901170100 85 277 3.0 4.0 0.00 0.02 0.00 83 1013.2
20260901170004 85 248 3.0 4.0 0.00 0.02 0.00 85 1013.2
20260901165902 85 213 0.0 4.0 0.00 0.02 0.00 86 1013.2
20260901165801 85 213 0.0 4.0 0.00 0.02 0.00 84 1013.2
20260901165600 85 213 2.0 6.0 0.00 0.02 0.00 85 1013.4
20260901165301 85 144 0.0 6.0 0.00 0.02 0.00 88 1013.5
20260901165201 84 144 0.0 6.0 0.00 0.02 0.00 87 1013.5
20260901165101 84 144 0.0 6.0 0.00 0.02 0.00 87 1013.5
20260901165004 84 144 1.0 6.0 0.00 0.02 0.00 86 1013.5
20260901164904 84 144 0.0 6.0 0.00 0.02 0.00 86 1013.5
20260901164700 84 179 3.0 3.0 0.00 0.02 0.00 87 1013.6
20260901164600 84 188 1.0 3.0 0.00 0.02 0.00 85 1013.7
20260901164503 84 188 1.0 3.0 0.00 0.02 0.00 86 1013.7
20260901164400 84 188 1.0 3.0 0.00 0.02 0.00 87 1013.7
20260901164202 83 179 1.0 3.0 0.00 0.02 0.00 87 1013.7
20260901164100 83 269 0.0 3.0 0.00 0.02 0.00 87 1013.7
20260901163701 83 269 2.0 3.0 0.00 0.02 0.00 87 1013.8
20260901163600 83 263 0.0 3.0 0.00 0.02 0.00 88 1013.8
20260901163503 83 263 1.0 3.0 0.00 0.02 0.00 87 1013.8
20260901163400 83 263 0.0 3.0 0.00 0.02 0.00 87 1013.8
20260901163301 83 263 1.0 3.0 0.00 0.02 0.00 87 1013.8
20260901163201 83 265 2.0 3.0 0.00 0.02 0.00 86 1013.8
20260901163102 83 265 2.0 3.0 0.00 0.02 0.00 86 1013.8
20260901163004 83 265 1.0 3.0 0.00 0.02 0.00 86 1013.8
20260901162900 83 265 0.0 3.0 0.00 0.02 0.00 86 1013.7
20260901162801 83 265 0.0 3.0 0.00 0.02 0.00 86 1013.8
20260901162701 83 265 1.0 3.0 0.00 0.02 0.00 87 1013.8
20260901162601 83 268 1.0 3.0 0.00 0.02 0.00 86 1013.7
20260901162504 83 263 2.0 3.0 0.00 0.02 0.00 87 1013.8
20260901162305 83 263 0.0 3.0 0.00 0.02 0.00 88 1013.9
20260901162201 83 265 1.0 3.0 0.00 0.02 0.00 88 1013.9
20260901162003 83 266 0.0 3.0 0.00 0.02 0.00 88 1013.9
20260901161902 83 266 2.0 3.0 0.00 0.02 0.00 87 1013.9
20260901161802 83 266 1.0 2.0 0.00 0.02 0.00 88 1013.9
20260901161700 82 266 1.0 2.0 0.00 0.02 0.00 89 1014.0
20260901161600 82 266 0.0 3.0 0.00 0.02 0.00 87 1014.0
20260901161402 82 266 0.0 3.0 0.00 0.02 0.00 89 1014.0
20260901161302 82 266 0.0 3.0 0.00 0.02 0.00 89 1014.0
20260901161201 82 266 0.0 3.0 0.00 0.02 0.00 88 1014.0
20260901161101 82 266 1.0 3.0 0.00 0.02 0.00 88 1014.0
20260901161004 82 266 1.0 3.0 0.00 0.02 0.00 88 1013.9
20260901160900 82 266 1.0 3.0 0.00 0.02 0.00 88 1014.0
20260901160800 82 266 0.0 3.0 0.00 0.02 0.00 87 1014.0
20260901160701 82 266 1.0 3.0 0.00 0.02 0.00 87 1014.0
20260901160601 82 267 2.0 3.0 0.00 0.02 0.00 87 1014.0
20260901160401 82 267 0.0 3.0 0.00 0.02 0.00 87 1014.0
20260901160301 82 267 1.0 3.0 0.00 0.02 0.00 87 1014.0
20260901160200 82 298 2.0 3.0 0.00 0.02 0.00 88 1013.9
20260901160100 82 298 1.0 3.0 0.00 0.02 0.00 90 1013.9
20260901160005 82 297 0.0 3.0 0.00 0.02 0.00 90 1014.0
20260901155801 82 298 0.0 3.0 0.00 0.02 0.00 91 1014.0
20260901155700 81 298 0.0 3.0 0.00 0.02 0.00 90 1014.0
20260901155600 81 297 0.0 3.0 0.00 0.02 0.00 89 1014.1
20260901155504 81 298 2.0 3.0 0.00 0.02 0.00 89 1014.1
20260901155401 81 298 0.0 2.0 0.00 0.02 0.00 89 1014.1
20260901155300 81 298 1.0 2.0 0.00 0.02 0.00 90 1014.1
20260901155201 81 297 1.0 2.0 0.00 0.02 0.00 90 1014.1
20260901155100 81 298 0.0 2.0 0.00 0.02 0.00 90 1014.1
20260901155003 81 298 0.0 2.0 0.00 0.02 0.00 90 1014.1
20260901154802 81 298 0.0 2.0 0.00 0.02 0.00 90 1014.1
20260901154701 81 298 0.0 2.0 0.00 0.02 0.00 89 1014.1
20260901154601 81 298 1.0 2.0 0.00 0.02 0.00 89 1014.1
20260901154504 81 298 1.0 2.0 0.00 0.02 0.00 89 1014.0
20260901154400 81 297 0.0 3.0 0.00 0.02 0.00 89 1014.0
20260901154159 81 298 0.0 3.0 0.00 0.02 0.00 90 1014.0
20260901154100 81 298 2.0 3.0 0.00 0.02 0.00 89 1014.0
20260901154004 81 297 1.0 3.0 0.00 0.02 0.00 89 1014.0
20260901153905 81 297 0.0 3.0 0.00 0.02 0.00 89 1014.1
20260901153801 81 297 1.0 3.0 0.00 0.02 0.00 90 1014.1
20260901153504 81 297 2.0 3.0 0.00 0.02 0.00 91 1014.0
20260901153400 81 168 0.0 2.0 0.00 0.02 0.00 91 1014.1
20260901153300 81 168 0.0 2.0 0.00 0.02 0.00 91 1014.1
20260901153201 81 168 0.0 2.0 0.00 0.02 0.00 91 1014.1
20260901153100 81 168 0.0 2.0 0.00 0.02 0.00 92 1014.2
20260901153004 81 168 1.0 2.0 0.00 0.02 0.00 92 1014.2
20260901152901 81 168 2.0 2.0 0.00 0.02 0.00 92 1014.2
20260901152800 80 168 0.0 2.0 0.00 0.02 0.00 93 1014.2
20260901152701 80 168 0.0 2.0 0.00 0.02 0.00 92 1014.3
20260901152300 80 168 0.0 2.0 0.00 0.02 0.00 93 1014.3
20260901152201 79 168 0.0 2.0 0.00 0.02 0.00 94 1014.4
20260901152100 79 168 0.0 2.0 0.00 0.02 0.00 93 1014.4
20260901152004 79 168 0.0 2.0 0.00 0.02 0.00 93 1014.4
20260901151901 79 168 2.0 2.0 0.00 0.02 0.00 93 1014.4
20260901151801 79 168 0.0 2.0 0.00 0.02 0.00 93 1014.4
20260901151700 79 168 1.0 2.0 0.00 0.02 0.00 94 1014.4
20260901151601 79 168 2.0 2.0 0.00 0.02 0.00 94 1014.4
20260901151504 79 168 0.0 1.0 0.00 0.02 0.00 95 1014.4
20260901151400 78 168 0.0 1.0 0.00 0.02 0.00 94 1014.5
20260901151200 78 168 0.0 1.0 0.00 0.02 0.00 94 1014.5
20260901151100 78 168 1.0 1.0 0.00 0.02 0.00 95 1014.5
20260901151003 78 168 0.0 1.0 0.00 0.02 0.00 95 1014.5
20260901150900 78 168 0.0 0.0 0.00 0.02 0.00 96 1014.5
20260901150600 78 168 0.0 0.0 0.00 0.02 0.00 96 1014.6
20260901150504 78 168 0.0 0.0 0.00 0.02 0.00 96 1014.6
20260901150400 78 168 0.0 0.0 0.00 0.02 0.00 96 1014.6
20260901150302 78 168 0.0 0.0 0.00 0.02 0.00 97 1014.6
20260901150202 78 168 0.0 0.0 0.00 0.02 0.00 97 1014.6
20260901150101 78 168 0.0 0.0 0.00 0.02 0.00 97 1014.6
20260901145859 78 168 0.0 0.0 0.00 0.02 0.00 97 1014.6
20260901145559 77 168 0.0 0.0 0.00 0.02 0.00 97 1014.6
20260901145502 77 168 0.0 0.0 0.00 0.02 0.00 97 1014.6
20260901145400 77 168 0.0 0.0 0.00 0.02 0.00 97 1014.6
20260901145259 77 168 0.0 0.0 0.00 0.02 0.00 97 1014.6
20260901145159 77 168 0.0 0.0 0.00 0.02 0.00 97 1014.6
20260901145100 77 168 0.0 0.0 0.00 0.02 0.00 97 1014.6
20260901145001 77 168 0.0 0.0 0.00 0.02 0.00 97 1014.5
20260901144858 77 168 0.0 0.0 0.00 0.02 0.00 97 1014.5
20260901144759 77 168 0.0 0.0 0.00 0.02 0.00 97 1014.5
20260901144659 77 168 0.0 0.0 0.00 0.02 0.00 97 1014.5
20260901144559 77 168 0.0 0.0 0.00 0.02 0.00 97 1014.5
20260901144500 77 168 0.0 0.0 0.00 0.02 0.00 97 1014.5
20260901144358 77 168 0.0 0.0 0.00 0.02 0.00 97 1014.6
20260901144259 77 168 0.0 0.0 0.00 0.02 0.00 97 1014.5
20260901144159 77 168 0.0 0.0 0.00 0.02 0.00 97 1014.5
20260901144100 77 168 0.0 0.0 0.00 0.02 0.00 97 1014.5
20260901144002 77 168 0.0 0.0 0.00 0.02 0.00 97 1014.5
20260901143759 77 168 0.0 0.0 0.00 0.02 0.00 97 1014.5
20260901143658 77 168 0.0 0.0 0.00 0.02 0.00 97 1014.5
20260901143600 77 168 0.0 0.0 0.00 0.02 0.00 97 1014.5
20260901143501 77 168 0.0 0.0 0.00 0.02 0.00 97 1014.5
20260901143359 77 168 0.0 0.0 0.00 0.02 0.00 97 1014.5
20260901143301 77 168 0.0 0.0 0.00 0.02 0.00 97 1014.5
20260901143159 77 168 0.0 0.0 0.00 0.02 0.00 97 1014.5
20260901143004 77 168 0.0 0.0 0.00 0.02 0.00 96 1014.6
20260901142900 77 168 0.0 0.0 0.00 0.02 0.00 96 1014.6
20260901142759 77 168 0.0 0.0 0.00 0.02 0.00 96 1014.7
20260901142658 77 168 0.0 0.0 0.00 0.02 0.00 96 1014.7
20260901142558 77 168 0.0 0.0 0.00 0.02 0.00 96 1014.7
20260901142504 77 168 0.0 1.0 0.00 0.02 0.00 96 1014.7
20260901142400 77 168 0.0 1.0 0.00 0.02 0.00 96 1014.6
20260901142259 77 168 0.0 1.0 0.00 0.02 0.00 96 1014.7
20260901142200 77 168 0.0 1.0 0.00 0.02 0.00 96 1014.6
20260901142100 77 168 0.0 1.0 0.00 0.02 0.00 96 1014.6
20260901142003 77 168 0.0 2.0 0.00 0.02 0.00 96 1014.5
20260901141800 77 168 0.0 2.0 0.00 0.02 0.00 97 1014.4
20260901141659 77 168 0.0 2.0 0.00 0.02 0.00 97 1014.4
20260901141558 77 168 0.0 2.0 0.00 0.02 0.00 97 1014.4
20260901141501 77 168 0.0 2.0 0.00 0.02 0.00 97 1014.4
20260901141359 77 168 0.0 2.0 0.00 0.02 0.00 97 1014.5
20260901141259 77 168 0.0 2.0 0.00 0.02 0.00 97 1014.6
20260901141200 77 168 0.0 2.0 0.00 0.02 0.00 97 1014.6
20260901141059 77 168 0.0 2.0 0.00 0.02 0.00 97 1014.6
20260901141003 77 168 0.0 0.0 0.00 0.02 0.00 97 1014.6
20260901140859 77 168 0.0 0.0 0.00 0.02 0.00 97 1014.6
20260901140800 77 168 0.0 0.0 0.00 0.02 0.00 97 1014.6
20260901140658 77 168 0.0 0.0 0.00 0.02 0.00 97 1014.6
20260901140600 77 168 0.0 0.0 0.00 0.02 0.00 97 1014.6
20260901140503 77 168 0.0 0.0 0.00 0.02 0.00 97 1014.6
20260901140401 77 168 0.0 0.0 0.00 0.02 0.00 97 1014.6
20260901140259 77 168 0.0 0.0 0.00 0.02 0.00 97 1014.6
20260901140200 77 168 0.0 0.0 0.00 0.02 0.00 97 1014.5
20260901140000 77 168 0.0 0.0 0.00 0.02 0.00 97 1014.5
20260901135859 77 168 0.0 0.0 0.00 0.02 0.00 97 1014.5
20260901135800 77 168 0.0 0.0 0.00 0.02 0.00 97 1014.5
20260901135559 76 168 0.0 0.0 0.00 0.02 0.00 97 1014.5
20260901135504 76 168 0.0 0.0 0.00 0.02 0.00 97 1014.5
20260901135359 76 168 0.0 0.0 0.00 0.02 0.00 97 1014.5
20260901135259 76 168 0.0 1.0 0.00 0.02 0.00 97 1014.5
20260901135201 76 168 0.0 1.0 0.00 0.02 0.00 97 1014.5
20260901135059 76 168 0.0 1.0 0.00 0.02 0.00 97 1014.5
20260901135004 76 168 0.0 1.0 0.00 0.02 0.00 97 1014.5
20260901134859 76 168 0.0 2.0 0.00 0.02 0.00 97 1014.5
20260901134759 76 168 0.0 2.0 0.00 0.02 0.00 97 1014.5
20260901134701 76 168 0.0 2.0 0.00 0.02 0.00 97 1014.5
20260901134559 76 168 0.0 2.0 0.00 0.02 0.00 97 1014.5
20260901134501 76 168 0.0 2.0 0.00 0.02 0.00 97 1014.5
20260901134259 76 168 0.0 2.0 0.00 0.02 0.00 97 1014.6
20260901134100 76 168 0.0 2.0 0.00 0.02 0.00 97 1014.5
20260901134000 76 168 0.0 2.0 0.00 0.02 0.00 97 1014.5
20260901133859 76 157 0.0 2.0 0.00 0.02 0.00 97 1014.6
20260901133759 76 157 0.0 2.0 0.00 0.02 0.00 97 1014.6
20260901133700 76 157 0.0 2.0 0.00 0.02 0.00 97 1014.6
20260901133600 76 157 0.0 2.0 0.00 0.02 0.00 97 1014.6
20260901133500 76 157 0.0 2.0 0.00 0.02 0.00 97 1014.6
20260901133359 76 157 0.0 2.0 0.00 0.02 0.00 97 1014.5
20260901133003 77 157 0.0 0.0 0.00 0.02 0.00 97 1014.6
20260901132859 77 157 0.0 0.0 0.00 0.02 0.00 97 1014.6
20260901132759 77 157 0.0 0.0 0.00 0.02 0.00 97 1014.7
20260901132659 77 157 0.0 0.0 0.00 0.02 0.00 97 1014.6
20260901132559 77 157 0.0 0.0 0.00 0.02 0.00 97 1014.6
20260901132500 77 157 0.0 0.0 0.00 0.02 0.00 97 1014.6
20260901132359 77 157 0.0 0.0 0.00 0.02 0.00 97 1014.7
20260901132300 77 157 0.0 0.0 0.00 0.02 0.00 97 1014.7
20260901132200 77 157 0.0 0.0 0.00 0.02 0.00 97 1014.7
20260901132059 77 157 0.0 0.0 0.00 0.02 0.00 97 1014.7
20260901132000 77 157 0.0 0.0 0.00 0.02 0.00 97 1014.7
20260901131858 77 157 0.0 0.0 0.00 0.02 0.00 97 1014.7
20260901131759 77 157 0.0 0.0 0.00 0.02 0.00 97 1014.7
20260901131658 77 157 0.0 0.0 0.00 0.02 0.00 97 1014.7
20260901131502 77 157 0.0 0.0 0.00 0.02 0.00 97 1014.7
20260901131359 77 157 0.0 0.0 0.00 0.02 0.00 98 1014.7
20260901131259 76 157 0.0 0.0 0.00 0.02 0.00 98 1014.8
20260901131201 76 157 0.0 0.0 0.00 0.02 0.00 98 1014.8
20260901131100 76 157 0.0 1.0 0.00 0.02 0.00 98 1014.8
20260901130900 76 157 0.0 1.0 0.00 0.02 0.00 99 1014.7
20260901130800 76 157 0.0 1.0 0.00 0.02 0.00 98 1014.8
20260901130700 76 157 0.0 1.0 0.00 0.02 0.00 99 1014.8
20260901130600 76 157 0.0 2.0 0.00 0.02 0.00 99 1014.8
20260901130503 75 157 0.0 2.0 0.00 0.02 0.00 99 1014.8
20260901130400 75 157 0.0 2.0 0.00 0.02 0.00 99 1014.8
20260901130259 75 157 0.0 2.0 0.00 0.02 0.00 99 1014.9
20260901130200 75 157 0.0 2.0 0.00 0.02 0.00 99 1014.9
20260901130100 74 157 0.0 2.0 0.00 0.02 0.00 99 1014.9
20260901130004 74 157 0.0 2.0 0.00 0.02 0.00 99 1014.8
20260901125859 74 157 0.0 2.0 0.00 0.02 0.00 99 1014.8
20260901125801 74 157 0.0 2.0 0.00 0.02 0.00 99 1014.9
20260901125700 74 157 2.0 2.0 0.00 0.02 0.00 99 1014.9
20260901125559 74 71 0.0 0.0 0.00 0.02 0.00 99 1014.8
20260901125504 74 71 0.0 0.0 0.00 0.02 0.00 99 1014.8
20260901125400 74 71 0.0 0.0 0.00 0.02 0.00 100 1014.9
20260901125300 74 71 0.0 0.0 0.00 0.02 0.00 100 1015.0
20260901125200 73 71 0.0 0.0 0.00 0.02 0.00 100 1015.0
20260901125100 73 71 0.0 0.0 0.00 0.02 0.00 99 1015.0
20260901125002 73 71 0.0 0.0 0.00 0.02 0.00 99 1015.1
20260901124759 73 71 0.0 0.0 0.00 0.02 0.00 99 1015.2
20260901124659 73 71 0.0 0.0 0.00 0.02 0.00 100 1015.2
20260901124600 73 71 0.0 0.0 0.00 0.02 0.00 100 1015.2
20260901124502 73 71 0.0 0.0 0.00 0.02 0.00 100 1015.3
20260901124359 73 71 0.0 0.0 0.00 0.02 0.00 99 1015.2
20260901124300 73 71 0.0 0.0 0.00 0.02 0.00 99 1015.2
20260901124159 72 71 0.0 0.0 0.00 0.02 0.00 99 1015.2
20260901124059 72 71 0.0 0.0 0.00 0.02 0.00 99 1015.2
20260901124003 72 71 0.0 0.0 0.00 0.02 0.00 99 1015.2
20260901123800 72 71 0.0 0.0 0.00 0.02 0.00 100 1015.2
20260901123700 72 71 0.0 0.0 0.00 0.02 0.00 100 1015.3
20260901123503 72 71 0.0 0.0 0.00 0.02 0.00 99 1015.3
20260901123359 72 71 0.0 0.0 0.00 0.02 0.00 99 1015.3
20260901123300 72 71 0.0 0.0 0.00 0.02 0.00 99 1015.3
20260901123200 72 71 0.0 0.0 0.00 0.02 0.00 99 1015.3
20260901123100 72 71 0.0 0.0 0.00 0.02 0.00 99 1015.3
20260901123000 72 71 0.0 0.0 0.00 0.02 0.00 99 1015.3
20260901122758 72 71 0.0 0.0 0.00 0.02 0.00 99 1015.2
20260901122659 72 71 0.0 0.0 0.00 0.02 0.00 99 1015.2
20260901122559 71 71 0.0 0.0 0.00 0.02 0.00 99 1015.1
20260901122501 71 71 0.0 0.0 0.00 0.02 0.00 99 1015.2
20260901122401 71 71 0.0 0.0 0.00 0.02 0.00 99 1015.2
20260901122259 71 71 0.0 0.0 0.00 0.02 0.00 99 1015.2
20260901122200 71 71 0.0 0.0 0.00 0.02 0.00 99 1015.3
20260901122059 71 71 0.0 0.0 0.00 0.02 0.00 99 1015.3
20260901122002 71 71 0.0 0.0 0.00 0.02 0.00 99 1015.3
20260901121900 71 71 0.0 0.0 0.00 0.02 0.00 99 1015.3
20260901121758 71 71 0.0 0.0 0.00 0.02 0.00 99 1015.3
20260901121659 71 71 0.0 0.0 0.00 0.02 0.00 99 1015.2
20260901121600 71 71 0.0 0.0 0.00 0.02 0.00 99 1015.2
20260901121504 71 71 0.0 0.0 0.00 0.02 0.00 99 1015.1
20260901121400 71 71 0.0 0.0 0.00 0.02 0.00 99 1015.2
20260901121259 71 71 0.0 0.0 0.00 0.02 0.00 99 1015.2
20260901121001 71 71 0.0 0.0 0.00 0.02 0.00 99 1015.2
20260901120900 71 71 0.0 0.0 0.00 0.02 0.00 99 1015.2
20260901120659 71 71 0.0 0.0 0.00 0.02 0.00 99 1015.2
20260901120558 71 71 0.0 0.0 0.00 0.02 0.00 99 1015.2
20260901120504 71 71 0.0 0.0 0.00 0.02 0.00 99 1015.2
20260901120400 71 71 0.0 0.0 0.00 0.02 0.00 99 1015.1
20260901120259 71 71 0.0 0.0 0.00 0.02 0.00 99 1015.0
20260901120200 71 71 0.0 0.0 0.00 0.02 0.00 99 1015.1
20260901120059 71 71 0.0 0.0 0.00 0.02 0.00 99 1015.2
20260901120001 71 71 0.0 0.0 0.00 0.02 0.00 99 1015.2
20260901115759 71 71 0.0 0.0 0.00 0.02 0.00 99 1015.1
20260901115659 71 71 0.0 0.0 0.00 0.02 0.00 99 1015.0
20260901115501 71 71 0.0 0.0 0.00 0.02 0.00 99 1015.1
20260901115359 71 71 0.0 0.0 0.00 0.02 0.00 99 1015.0
20260901115300 71 71 0.0 0.0 0.00 0.02 0.00 99 1015.2
20260901115159 71 71 0.0 0.0 0.00 0.02 0.00 99 1015.1
20260901115100 71 71 0.0 0.0 0.00 0.02 0.00 99 1015.2
20260901114658 71 71 0.0 0.0 0.00 0.02 0.00 99 1015.2
20260901114559 71 71 0.0 0.0 0.00 0.02 0.00 99 1015.2
20260901114502 71 71 0.0 0.0 0.00 0.02 0.00 99 1015.2
20260901114358 71 71 0.0 0.0 0.00 0.02 0.00 99 1015.3
20260901114300 71 71 0.0 0.0 0.00 0.02 0.00 99 1015.2
20260901114159 71 71 0.0 0.0 0.00 0.02 0.00 99 1015.2
20260901114004 70 71 0.0 0.0 0.00 0.02 0.00 99 1015.0
20260901113859 70 71 0.0 0.0 0.00 0.02 0.00 99 1015.0
20260901113759 70 71 0.0 0.0 0.00 0.02 0.00 99 1015.0
20260901113700 70 71 0.0 0.0 0.00 0.02 0.00 99 1015.1
20260901113600 70 71 0.0 0.0 0.00 0.02 0.00 99 1015.0
20260901113504 70 71 0.0 0.0 0.00 0.02 0.00 99 1015.0
20260901113359 70 71 0.0 0.0 0.00 0.02 0.00 99 1015.0
20260901113159 70 71 0.0 0.0 0.00 0.02 0.00 99 1015.1
20260901113059 70 71 0.0 0.0 0.00 0.02 0.00 99 1015.0
20260901113004 70 71 0.0 0.0 0.00 0.02 0.00 99 1015.0
20260901112900 70 71 0.0 0.0 0.00 0.02 0.00 99 1015.0
20260901112802 70 71 0.0 0.0 0.00 0.02 0.00 99 1015.1
20260901112701 70 71 0.0 0.0 0.00 0.02 0.00 99 1015.1
20260901112558 70 71 0.0 0.0 0.00 0.02 0.00 99 1015.0
20260901112501 70 71 0.0 0.0 0.00 0.02 0.00 99 1015.0
20260901112400 70 71 0.0 0.0 0.00 0.02 0.00 99 1015.0
20260901112259 70 71 0.0 0.0 0.00 0.02 0.00 99 1015.1
20260901112200 70 71 0.0 0.0 0.00 0.02 0.00 99 1015.0
20260901112100 70 71 0.0 0.0 0.00 0.02 0.00 99 1015.0
20260901112003 70 71 0.0 0.0 0.00 0.02 0.00 99 1015.0
20260901111901 70 71 0.0 0.0 0.00 0.02 0.00 99 1015.0
20260901111759 70 71 0.0 0.0 0.00 0.02 0.00 99 1015.0
20260901111659 70 71 0.0 0.0 0.00 0.02 0.00 99 1015.0
20260901111559 70 71 0.0 0.0 0.00 0.02 0.00 99 1015.0
20260901111503 70 71 0.0 0.0 0.00 0.02 0.00 99 1015.1
20260901111359 70 71 0.0 0.0 0.00 0.02 0.00 99 1015.1
20260901111259 70 71 0.0 0.0 0.00 0.02 0.00 99 1015.1
20260901111159 70 71 0.0 0.0 0.00 0.02 0.00 99 1015.0
20260901111003 70 71 0.0 0.0 0.00 0.02 0.00 99 1015.0
20260901110900 70 71 0.0 0.0 0.00 0.02 0.00 99 1015.0
20260901110759 70 71 0.0 0.0 0.00 0.02 0.00 99 1015.1
20260901110701 70 71 0.0 0.0 0.00 0.02 0.00 99 1015.2
20260901110559 70 71 0.0 0.0 0.00 0.02 0.00 99 1015.2
20260901110501 70 71 0.0 0.0 0.00 0.02 0.00 99 1015.1
20260901110300 70 71 0.0 0.0 0.00 0.02 0.00 99 1015.1
20260901110059 70 71 0.0 0.0 0.00 0.02 0.00 99 1015.0
20260901110005 70 71 0.0 0.0 0.00 0.02 0.00 99 1015.0
20260901105900 70 71 0.0 0.0 0.00 0.02 0.00 99 1014.9
20260901105601 70 71 0.0 0.0 0.00 0.02 0.00 99 1014.9
20260901105504 70 71 0.0 0.0 0.00 0.02 0.00 99 1014.9
20260901105401 70 71 0.0 0.0 0.00 0.02 0.00 99 1014.8
20260901105200 70 71 0.0 0.0 0.00 0.02 0.00 99 1014.9
20260901105059 70 71 0.0 0.0 0.00 0.02 0.00 99 1014.9
20260901105004 70 71 0.0 0.0 0.00 0.02 0.00 99 1014.9
20260901104901 70 71 0.0 0.0 0.00 0.02 0.00 99 1014.9
20260901104759 70 71 0.0 0.0 0.00 0.02 0.00 99 1014.9
20260901104700 70 71 0.0 0.0 0.00 0.02 0.00 99 1014.9
20260901104600 70 71 0.0 0.0 0.00 0.02 0.00 99 1015.0
20260901104504 70 71 0.0 0.0 0.00 0.02 0.00 99 1015.0
20260901104401 70 71 0.0 0.0 0.00 0.02 0.00 99 1015.0
20260901104200 70 71 0.0 0.0 0.00 0.02 0.00 99 1015.1
20260901104100 70 71 0.0 0.0 0.00 0.02 0.00 99 1015.1
20260901103900 70 71 0.0 0.0 0.00 0.02 0.00 99 1015.0
20260901103800 70 71 0.0 0.0 0.00 0.02 0.00 99 1015.1
20260901103700 70 71 0.0 0.0 0.00 0.02 0.00 99 1015.1
20260901103504 70 71 0.0 0.0 0.00 0.02 0.00 99 1015.1
20260901103400 70 71 0.0 0.0 0.00 0.02 0.00 99 1015.1
20260901103300 70 71 0.0 0.0 0.00 0.02 0.00 99 1015.1
20260901103200 70 71 0.0 0.0 0.00 0.02 0.00 99 1015.1
20260901103100 70 71 0.0 0.0 0.00 0.02 0.00 99 1015.0
20260901103003 70 71 0.0 0.0 0.00 0.02 0.00 99 1015.0
20260901102901 70 71 0.0 0.0 0.00 0.02 0.00 99 1015.0
20260901102800 70 71 0.0 0.0 0.00 0.02 0.00 99 1015.0
20260901102701 70 71 0.0 0.0 0.00 0.02 0.00 99 1015.0
20260901102602 70 71 0.0 0.0 0.00 0.02 0.00 99 1015.0
20260901102504 70 71 0.0 0.0 0.00 0.02 0.00 99 1015.0
20260901102300 70 71 0.0 0.0 0.00 0.02 0.00 99 1015.0
20260901102200 70 71 0.0 0.0 0.00 0.02 0.00 99 1015.0
20260901102100 70 71 0.0 0.0 0.00 0.02 0.00 99 1015.0
20260901102004 70 71 0.0 0.0 0.00 0.02 0.00 99 1015.0
20260901101900 70 71 0.0 0.0 0.00 0.02 0.00 99 1015.0
20260901101801 70 71 0.0 0.0 0.00 0.02 0.00 99 1015.0
20260901101504 70 71 0.0 0.0 0.00 0.02 0.00 99 1015.0
20260901101401 70 71 0.0 0.0 0.00 0.02 0.00 99 1015.0
20260901101301 70 71 0.0 0.0 0.00 0.02 0.00 99 1014.9
20260901101202 70 71 0.0 0.0 0.00 0.02 0.00 99 1015.0
20260901100902 70 71 0.0 0.0 0.00 0.02 0.00 99 1015.0
20260901100800 70 71 0.0 0.0 0.00 0.02 0.00 99 1014.9
20260901100700 70 71 0.0 0.0 0.00 0.02 0.00 99 1014.8
20260901100603 70 71 0.0 0.0 0.00 0.02 0.00 99 1014.8
20260901100400 70 71 0.0 0.0 0.00 0.02 0.00 99 1014.9
20260901100300 70 71 0.0 0.0 0.00 0.02 0.00 99 1014.9
20260901100100 70 71 0.0 0.0 0.00 0.02 0.00 99 1014.9
20260901100004 70 71 0.0 0.0 0.00 0.02 0.00 99 1014.9
20260901095900 70 71 0.0 0.0 0.00 0.02 0.00 99 1014.9
20260901095802 70 71 0.0 0.0 0.00 0.02 0.00 99 1014.8
20260901095600 70 71 0.0 0.0 0.00 0.02 0.00 99 1014.8
20260901095504 70 71 0.0 0.0 0.00 0.02 0.00 99 1014.8
20260901095402 70 71 0.0 0.0 0.00 0.02 0.00 99 1014.8
20260901095259 70 71 0.0 0.0 0.00 0.02 0.00 99 1014.7
20260901095201 70 71 0.0 0.0 0.00 0.02 0.00 99 1014.7
20260901095058 70 71 0.0 0.0 0.00 0.02 0.00 99 1014.6
20260901095003 70 71 0.0 0.0 0.00 0.02 0.00 99 1014.6
20260901094902 70 71 0.0 0.0 0.00 0.02 0.00 99 1014.5
20260901094800 70 71 0.0 0.0 0.00 0.02 0.00 99 1014.5
20260901094703 70 71 0.0 0.0 0.00 0.02 0.00 99 1014.5
20260901094559 70 71 0.0 0.0 0.00 0.02 0.00 99 1014.6
20260901094503 70 71 0.0 0.0 0.00 0.02 0.00 99 1014.6
20260901094258 70 71 0.0 0.0 0.00 0.02 0.00 99 1014.6
20260901094159 70 71 0.0 0.0 0.00 0.02 0.00 99 1014.6
20260901093702 70 71 0.0 0.0 0.00 0.02 0.00 99 1014.7
20260901093558 70 71 0.0 0.0 0.00 0.02 0.00 99 1014.7
20260901093500 70 71 0.0 0.0 0.00 0.02 0.00 99 1014.7
20260901093359 70 71 0.0 0.0 0.00 0.02 0.00 99 1014.7
20260901093303 70 71 0.0 0.0 0.00 0.02 0.00 98 1014.7
20260901093202 70 71 0.0 0.0 0.00 0.02 0.00 98 1014.8
20260901093100 70 71 0.0 0.0 0.00 0.02 0.00 98 1014.6
20260901093005 70 71 0.0 0.0 0.00 0.02 0.00 98 1014.7
20260901092759 70 71 0.0 0.0 0.00 0.02 0.00 98 1014.8
20260901092659 70 71 0.0 0.0 0.00 0.02 0.00 98 1014.8
20260901092602 70 71 0.0 0.0 0.00 0.02 0.00 98 1015.0
20260901092400 70 71 0.0 0.0 0.00 0.02 0.00 98 1014.9
20260901092259 70 71 0.0 0.0 0.00 0.02 0.00 98 1014.9
20260901092202 70 71 0.0 0.0 0.00 0.02 0.00 98 1014.9
20260901092004 70 71 0.0 0.0 0.00 0.02 0.00 98 1014.9
20260901091903 70 71 0.0 0.0 0.00 0.02 0.00 98 1014.9
20260901091801 70 71 0.0 0.0 0.00 0.02 0.00 99 1014.9
20260901091659 70 71 0.0 0.0 0.00 0.02 0.00 99 1014.8
20260901091500 70 71 0.0 0.0 0.00 0.02 0.00 98 1014.8
20260901091358 70 71 0.0 0.0 0.00 0.02 0.00 98 1014.8
20260901091259 70 71 0.0 0.0 0.00 0.02 0.00 98 1014.7
20260901091201 70 71 0.0 0.0 0.00 0.02 0.00 98 1014.7
20260901091100 70 71 0.0 0.0 0.00 0.02 0.00 98 1014.8
20260901091003 70 71 0.0 0.0 0.00 0.02 0.00 98 1014.8
20260901090859 70 71 0.0 0.0 0.00 0.02 0.00 98 1014.9
20260901090802 70 71 0.0 0.0 0.00 0.02 0.00 98 1014.9
20260901090701 70 71 0.0 0.0 0.00 0.02 0.00 98 1014.9
20260901090559 70 71 0.0 0.0 0.00 0.02 0.00 98 1015.0
20260901090300 70 71 0.0 0.0 0.00 0.02 0.00 98 1015.0
20260901090159 70 71 0.0 0.0 0.00 0.02 0.00 98 1015.0
20260901090058 70 71 0.0 0.0 0.00 0.02 0.00 98 1015.0
20260901090004 70 71 0.0 0.0 0.00 0.02 0.00 98 1015.0
20260901085902 70 71 0.0 0.0 0.00 0.02 0.00 98 1014.9
20260901085802 70 71 0.0 0.0 0.00 0.02 0.00 98 1015.0
20260901085603 70 71 0.0 0.0 0.00 0.02 0.00 98 1015.0
20260901085100 70 71 0.0 0.0 0.00 0.02 0.00 98 1015.0
20260901084859 69 71 0.0 0.0 0.00 0.02 0.00 98 1015.0
20260901084803 69 71 0.0 0.0 0.00 0.02 0.00 98 1015.0
20260901084659 69 71 0.0 0.0 0.00 0.02 0.00 98 1015.0
20260901084601 69 71 0.0 0.0 0.00 0.02 0.00 98 1015.0
20260901084505 69 71 0.0 0.0 0.00 0.02 0.00 98 1015.0
20260901084401 69 71 0.0 0.0 0.00 0.02 0.00 98 1015.0
20260901084300 69 71 0.0 0.0 0.00 0.02 0.00 98 1015.0
20260901084200 69 71 0.0 0.0 0.00 0.02 0.00 98 1015.1
20260901084105 69 71 0.0 0.0 0.00 0.02 0.00 98 1015.1
20260901084000 69 71 0.0 0.0 0.00 0.02 0.00 98 1015.1
20260901083859 69 71 0.0 0.0 0.00 0.02 0.00 98 1015.1
20260901083800 69 71 0.0 0.0 0.00 0.02 0.00 98 1015.1
20260901083700 69 71 0.0 0.0 0.00 0.02 0.00 98 1015.2
20260901083558 69 71 0.0 0.0 0.00 0.02 0.00 98 1015.2
20260901083503 69 71 0.0 0.0 0.00 0.02 0.00 98 1015.2
20260901083400 69 71 0.0 0.0 0.00 0.02 0.00 98 1015.2
20260901083259 69 71 0.0 0.0 0.00 0.02 0.00 98 1015.2
20260901083159 69 71 0.0 0.0 0.00 0.02 0.00 98 1015.2
20260901083005 69 71 0.0 0.0 0.00 0.02 0.00 98 1015.2
20260901082801 69 71 0.0 0.0 0.00 0.02 0.00 98 1015.2
20260901082701 69 71 0.0 0.0 0.00 0.02 0.00 98 1015.2
20260901082558 69 71 0.0 0.0 0.00 0.02 0.00 98 1015.3
20260901082403 69 71 0.0 0.0 0.00 0.02 0.00 98 1015.3
20260901082302 69 71 0.0 0.0 0.00 0.02 0.00 98 1015.3
20260901082103 69 71 0.0 0.0 0.00 0.02 0.00 98 1015.4
20260901082003 69 71 0.0 0.0 0.00 0.02 0.00 98 1015.4
20260901081859 69 71 0.0 0.0 0.00 0.02 0.00 98 1015.4
20260901081800 69 71 0.0 0.0 0.00 0.02 0.00 98 1015.3
20260901081702 69 71 0.0 0.0 0.00 0.02 0.00 98 1015.4
20260901081558 69 71 0.0 0.0 0.00 0.02 0.00 98 1015.4
20260901081504 69 71 0.0 0.0 0.00 0.02 0.00 98 1015.4
20260901081358 69 71 0.0 0.0 0.00 0.02 0.00 98 1015.4
20260901081300 69 71 0.0 0.0 0.00 0.02 0.00 98 1015.3
20260901081159 69 71 0.0 0.0 0.00 0.02 0.00 98 1015.3
20260901081100 69 71 0.0 0.0 0.00 0.02 0.00 98 1015.3
20260901081003 69 71 0.0 0.0 0.00 0.02 0.00 98 1015.3
20260901080759 69 71 0.0 0.0 0.00 0.02 0.00 98 1015.3
20260901080700 69 71 0.0 0.0 0.00 0.02 0.00 98 1015.3
20260901080603 69 71 0.0 0.0 0.00 0.02 0.00 98 1015.3
20260901080504 69 71 0.0 0.0 0.00 0.02 0.00 98 1015.3
20260901080359 69 71 0.0 0.0 0.00 0.02 0.00 98 1015.3
20260901080300 69 71 0.0 0.0 0.00 0.02 0.00 98 1015.4
20260901080059 69 71 0.0 0.0 0.00 0.02 0.00 98 1015.3
20260901080006 69 71 0.0 0.0 0.00 0.02 0.00 98 1015.4
20260901075900 69 71 0.0 0.0 0.00 0.02 0.00 98 1015.4
20260901075700 69 71 0.0 0.0 0.00 0.02 0.00 98 1015.4
20260901075559 69 71 0.0 0.0 0.00 0.02 0.00 98 1015.4
20260901075503 69 71 0.0 0.0 0.00 0.02 0.00 98 1015.4
20260901075400 69 71 0.0 0.0 0.00 0.02 0.00 98 1015.4
20260901075259 69 71 0.0 0.0 0.00 0.02 0.00 98 1015.3
20260901075159 69 71 0.0 0.0 0.00 0.02 0.00 98 1015.4
20260901075059 69 71 0.0 0.0 0.00 0.02 0.00 98 1015.4
20260901075003 69 71 0.0 0.0 0.00 0.02 0.00 98 1015.3
20260901074859 69 71 0.0 0.0 0.00 0.02 0.00 98 1015.4
20260901074502 69 71 0.0 0.0 0.00 0.02 0.00 98 1015.4
20260901074402 69 71 0.0 0.0 0.00 0.02 0.00 98 1015.4
20260901074259 69 71 0.0 0.0 0.00 0.02 0.00 98 1015.4
20260901074159 69 71 0.0 0.0 0.00 0.02 0.00 98 1015.4
20260901074003 69 71 0.0 0.0 0.00 0.02 0.00 98 1015.5
20260901073900 69 71 0.0 0.0 0.00 0.02 0.00 97 1015.5
20260901073758 69 71 0.0 0.0 0.00 0.02 0.00 97 1015.5
20260901073659 69 71 0.0 0.0 0.00 0.02 0.00 97 1015.5
20260901073600 69 71 0.0 0.0 0.00 0.02 0.00 97 1015.5
20260901073500 69 71 0.0 0.0 0.00 0.02 0.00 97 1015.5
20260901073400 69 71 0.0 0.0 0.00 0.02 0.00 97 1015.5
20260901073200 69 71 0.0 0.0 0.00 0.02 0.00 97 1015.5
20260901073100 69 71 0.0 0.0 0.00 0.02 0.00 97 1015.5
20260901073001 69 71 0.0 0.0 0.00 0.02 0.00 97 1015.5
20260901072759 69 71 0.0 0.0 0.00 0.02 0.00 97 1015.5
20260901072659 69 71 0.0 0.0 0.00 0.02 0.00 97 1015.5
20260901072600 69 71 0.0 0.0 0.00 0.02 0.00 97 1015.5
20260901072502 69 71 0.0 0.0 0.00 0.02 0.00 97 1015.5
20260901072400 69 71 0.0 0.0 0.00 0.02 0.00 97 1015.4
20260901072159 69 71 0.0 0.0 0.00 0.02 0.00 97 1015.4
20260901072100 69 71 0.0 0.0 0.00 0.02 0.00 97 1015.5
20260901072000 69 71 0.0 0.0 0.00 0.02 0.00 97 1015.5
20260901071859 69 71 0.0 0.0 0.00 0.02 0.00 97 1015.4
20260901071659 69 71 0.0 0.0 0.00 0.02 0.00 97 1015.5
20260901071559 69 71 0.0 0.0 0.00 0.02 0.00 97 1015.5
20260901071503 69 71 0.0 0.0 0.00 0.02 0.00 97 1015.5
20260901071359 69 71 0.0 0.0 0.00 0.02 0.00 97 1015.5
20260901071259 69 71 0.0 0.0 0.00 0.02 0.00 97 1015.5
20260901071159 69 71 0.0 0.0 0.00 0.02 0.00 97 1015.5
20260901071100 69 71 0.0 0.0 0.00 0.02 0.00 97 1015.5
20260901071003 69 71 0.0 0.0 0.00 0.02 0.00 97 1015.5
20260901070859 69 71 0.0 0.0 0.00 0.02 0.00 97 1015.5
20260901070758 69 71 0.0 0.0 0.00 0.02 0.00 97 1015.5
20260901070659 69 71 0.0 0.0 0.00 0.02 0.00 97 1015.5
20260901070600 69 71 0.0 0.0 0.00 0.02 0.00 97 1015.5
20260901070359 69 71 0.0 0.0 0.00 0.02 0.00 97 1015.5
20260901070300 69 71 0.0 0.0 0.00 0.02 0.00 97 1015.5
20260901070059 69 71 0.0 0.0 0.00 0.02 0.00 97 1015.4
20260901070004 69 71 0.0 0.0 0.00 0.02 0.00 97 1015.4
20260901065858 69 71 0.0 0.0 0.00 0.02 0.00 97 1015.4
20260901065759 69 71 0.0 0.0 0.00 0.02 0.00 97 1015.4
20260901065658 69 71 0.0 0.0 0.00 0.02 0.00 97 1015.4
20260901065557 69 71 0.0 0.0 0.00 0.02 0.00 97 1015.3
20260901065500 69 71 0.0 0.0 0.00 0.02 0.00 97 1015.3
20260901065359 69 71 0.0 0.0 0.00 0.02 0.00 97 1015.3
20260901065258 69 71 0.0 0.0 0.00 0.02 0.00 97 1015.3
20260901065158 69 71 0.0 0.0 0.00 0.02 0.00 97 1015.3
20260901065058 69 71 0.0 0.0 0.00 0.02 0.00 97 1015.3
20260901064858 69 71 0.0 0.0 0.00 0.02 0.00 97 1015.3
20260901064758 69 71 0.0 0.0 0.00 0.02 0.00 97 1015.4
20260901064659 69 71 0.0 0.0 0.00 0.02 0.00 97 1015.4
20260901064558 69 71 0.0 0.0 0.00 0.02 0.00 97 1015.3
20260901064501 69 71 0.0 0.0 0.00 0.02 0.00 97 1015.4
20260901064359 69 71 0.0 0.0 0.00 0.02 0.00 97 1015.4
20260901064259 69 71 0.0 0.0 0.00 0.02 0.00 97 1015.4
20260901064159 69 71 0.0 0.0 0.00 0.02 0.00 97 1015.4
20260901064058 69 71 0.0 0.0 0.00 0.02 0.00 97 1015.5
20260901063959 69 71 0.0 0.0 0.00 0.02 0.00 97 1015.5
20260901063858 69 71 0.0 0.0 0.00 0.02 0.00 97 1015.5
20260901063758 69 71 0.0 0.0 0.00 0.02 0.00 97 1015.5
20260901063658 69 71 0.0 0.0 0.00 0.02 0.00 97 1015.5
20260901063557 69 71 0.0 0.0 0.00 0.02 0.00 97 1015.6
20260901063502 69 71 0.0 0.0 0.00 0.02 0.00 97 1015.5
20260901063359 70 71 0.0 0.0 0.00 0.02 0.00 97 1015.6
20260901063300 70 71 0.0 0.0 0.00 0.02 0.00 97 1015.6
20260901063158 70 71 0.0 0.0 0.00 0.02 0.00 97 1015.6
20260901063058 70 71 0.0 0.0 0.00 0.02 0.00 97 1015.6
20260901063000 70 71 0.0 0.0 0.00 0.02 0.00 97 1015.6
20260901062859 70 71 0.0 0.0 0.00 0.02 0.00 97 1015.6
20260901062758 70 71 0.0 0.0 0.00 0.02 0.00 97 1015.6
20260901062658 70 71 0.0 0.0 0.00 0.02 0.00 97 1015.6
20260901062559 70 71 0.0 0.0 0.00 0.02 0.00 97 1015.6
20260901062502 70 71 0.0 0.0 0.00 0.02 0.00 97 1015.6
20260901062359 70 71 0.0 0.0 0.00 0.02 0.00 97 1015.6
20260901062300 70 71 0.0 0.0 0.00 0.02 0.00 97 1015.6
20260901062158 70 71 0.0 0.0 0.00 0.02 0.00 97 1015.7
20260901062059 70 71 0.0 0.0 0.00 0.02 0.00 97 1015.7
20260901061859 70 71 0.0 0.0 0.00 0.02 0.00 97 1015.8
20260901061758 70 71 0.0 0.0 0.00 0.02 0.00 97 1015.8
20260901061658 70 71 0.0 0.0 0.00 0.02 0.00 97 1015.8
20260901061559 70 71 0.0 0.0 0.00 0.02 0.00 97 1015.7
20260901061459 70 71 0.0 0.0 0.00 0.02 0.00 97 1015.8
20260901061358 70 71 0.0 0.0 0.00 0.02 0.00 97 1015.8
20260901061259 70 71 0.0 0.0 0.00 0.02 0.00 97 1015.8
20260901061200 70 71 0.0 0.0 0.00 0.02 0.00 97 1015.8
20260901061058 70 71 0.0 0.0 0.00 0.02 0.00 97 1015.9
20260901061000 70 71 0.0 0.0 0.00 0.02 0.00 97 1015.9
20260901060859 70 71 0.0 0.0 0.00 0.02 0.00 97 1015.9
20260901060758 70 71 0.0 0.0 0.00 0.02 0.00 97 1015.8
20260901060659 70 71 0.0 0.0 0.00 0.02 0.00 97 1015.8
20260901060502 70 71 0.0 0.0 0.00 0.02 0.00 97 1015.8
20260901060359 70 71 0.0 0.0 0.00 0.02 0.00 97 1015.8
20260901060258 70 71 0.0 0.0 0.00 0.02 0.00 97 1015.8
20260901060159 70 71 0.0 0.0 0.00 0.02 0.00 97 1015.8
20260901060059 70 71 0.0 0.0 0.00 0.02 0.00 97 1015.8
20260901055900 70 71 0.0 0.0 0.00 0.02 0.00 97 1015.9
20260901055800 70 71 0.0 0.0 0.00 0.02 0.00 97 1016.0
20260901055659 70 71 0.0 0.0 0.00 0.02 0.00 97 1015.9
20260901055504 70 71 0.0 0.0 0.00 0.02 0.00 97 1015.9
20260901055358 70 71 0.0 0.0 0.00 0.02 0.00 96 1016.0
20260901055259 70 71 0.0 0.0 0.00 0.02 0.00 96 1015.9
20260901055207 70 71 0.0 0.0 0.00 0.02 0.00 96 1016.0
20260901055059 70 71 0.0 0.0 0.00 0.02 0.00 96 1016.0
20260901055001 70 71 0.0 0.0 0.00 0.02 0.00 96 1016.0
20260901054904 70 71 0.0 0.0 0.00 0.02 0.00 96 1016.0
20260901054759 70 71 0.0 0.0 0.00 0.02 0.00 96 1016.0
20260901054658 70 71 0.0 0.0 0.00 0.02 0.00 96 1016.1
20260901054558 70 71 0.0 0.0 0.00 0.02 0.00 96 1016.1
20260901054500 70 71 0.0 0.0 0.00 0.02 0.00 96 1016.1
20260901054400 70 71 0.0 0.0 0.00 0.02 0.00 96 1016.1
20260901054301 70 71 0.0 0.0 0.00 0.02 0.00 96 1016.1
20260901054059 70 71 0.0 0.0 0.00 0.02 0.00 96 1016.1
20260901054004 70 71 0.0 0.0 0.00 0.02 0.00 96 1016.1
20260901053759 70 71 0.0 0.0 0.00 0.02 0.00 96 1016.1
20260901053659 70 71 0.0 0.0 0.00 0.02 0.00 96 1016.1
20260901053559 70 71 0.0 0.0 0.00 0.02 0.00 96 1016.1
20260901053359 70 71 0.0 0.0 0.00 0.02 0.00 96 1016.2
20260901053300 70 71 0.0 0.0 0.00 0.02 0.00 96 1016.2
20260901053159 70 71 0.0 0.0 0.00 0.02 0.00 96 1016.1
20260901053100 71 71 0.0 0.0 0.00 0.02 0.00 96 1016.2
20260901053000 71 71 0.0 0.0 0.00 0.02 0.00 96 1016.2
20260901052859 71 71 0.0 0.0 0.00 0.02 0.00 96 1016.2
20260901052759 71 71 0.0 0.0 0.00 0.02 0.00 96 1016.2
20260901052659 71 71 0.0 0.0 0.00 0.02 0.00 96 1016.2
20260901052559 71 71 0.0 0.0 0.00 0.02 0.00 96 1016.2
20260901052502 71 71 0.0 0.0 0.00 0.02 0.00 96 1016.2
20260901052358 71 71 0.0 0.0 0.00 0.02 0.00 96 1016.2
20260901052300 71 71 0.0 0.0 0.00 0.02 0.00 96 1016.2
20260901052200 71 71 0.0 0.0 0.00 0.02 0.00 96 1016.1
20260901052059 71 71 0.0 0.0 0.00 0.02 0.00 96 1016.2
20260901052004 71 71 0.0 0.0 0.00 0.02 0.00 96 1016.2
20260901051802 71 71 0.0 0.0 0.00 0.02 0.00 96 1016.2
20260901051659 71 71 0.0 0.0 0.00 0.02 0.00 96 1016.3
20260901051600 71 71 0.0 0.0 0.00 0.02 0.00 96 1016.2
20260901051500 71 71 0.0 0.0 0.00 0.02 0.00 96 1016.3
20260901051200 71 71 0.0 0.0 0.00 0.02 0.00 96 1016.3
20260901051002 71 71 0.0 0.0 0.00 0.02 0.00 96 1016.3
20260901050900 71 71 0.0 0.0 0.00 0.02 0.00 96 1016.3
20260901050801 71 71 0.0 0.0 0.00 0.02 0.00 96 1016.2
20260901050659 71 71 0.0 0.0 0.00 0.02 0.00 96 1016.2
20260901050559 71 71 0.0 0.0 0.00 0.02 0.00 96 1016.2
20260901050501 71 71 0.0 0.0 0.00 0.02 0.00 96 1016.2
20260901050259 71 71 0.0 0.0 0.00 0.02 0.00 96 1016.3
20260901050200 71 71 0.0 0.0 0.00 0.02 0.00 96 1016.3
20260901050001 71 71 0.0 0.0 0.00 0.02 0.00 96 1016.3
20260901045859 71 71 0.0 0.0 0.00 0.02 0.00 96 1016.3
20260901045659 71 71 0.0 0.0 0.00 0.02 0.00 96 1016.2
20260901045601 71 71 0.0 0.0 0.00 0.02 0.00 96 1016.2
20260901045501 71 71 0.0 0.0 0.00 0.02 0.00 96 1016.2
20260901045401 71 71 0.0 0.0 0.00 0.02 0.00 96 1016.3
20260901045258 71 71 0.0 0.0 0.00 0.02 0.00 96 1016.2
20260901045200 71 71 0.0 0.0 0.00 0.02 0.00 96 1016.2
20260901045100 71 71 0.0 0.0 0.00 0.02 0.00 96 1016.3
20260901045000 71 71 0.0 0.0 0.00 0.02 0.00 96 1016.2
20260901044700 71 71 0.0 0.0 0.00 0.02 0.00 96 1016.2
20260901044600 71 71 0.0 0.0 0.00 0.02 0.00 96 1016.2
20260901044500 71 71 0.0 0.0 0.00 0.02 0.00 96 1016.3
20260901044358 71 71 0.0 0.0 0.00 0.02 0.00 96 1016.3
20260901044300 71 71 0.0 0.0 0.00 0.02 0.00 96 1016.3
20260901044003 71 71 0.0 0.0 0.00 0.02 0.00 96 1016.3
20260901043859 71 71 0.0 0.0 0.00 0.02 0.00 96 1016.3
20260901043759 71 71 0.0 0.0 0.00 0.02 0.00 96 1016.3
20260901043700 71 71 0.0 0.0 0.00 0.02 0.00 96 1016.3
20260901043559 71 71 0.0 0.0 0.00 0.02 0.00 96 1016.3
20260901043501 71 71 0.0 0.0 0.00 0.02 0.00 96 1016.3
20260901043359 71 71 0.0 1.0 0.00 0.02 0.00 96 1016.3
20260901043259 71 71 0.0 2.0 0.00 0.02 0.00 96 1016.3
20260901043201 71 71 0.0 2.0 0.00 0.02 0.00 96 1016.4
20260901043106 71 71 0.0 2.0 0.00 0.02 0.00 96 1016.4
20260901043003 71 71 0.0 2.0 0.00 0.02 0.00 96 1016.4
20260901042859 71 71 0.0 2.0 0.00 0.02 0.00 96 1016.4
20260901042801 71 71 0.0 2.0 0.00 0.02 0.00 96 1016.4
20260901042659 71 71 0.0 2.0 0.00 0.02 0.00 96 1016.4
20260901042600 71 71 0.0 2.0 0.00 0.02 0.00 96 1016.4
20260901042505 71 71 0.0 2.0 0.00 0.02 0.00 96 1016.4
20260901042359 71 71 1.0 1.0 0.00 0.02 0.00 96 1016.4
20260901042258 71 71 0.0 1.0 0.00 0.02 0.00 96 1016.4
20260901042201 71 71 0.0 1.0 0.00 0.02 0.00 96 1016.4
20260901042059 71 71 0.0 1.0 0.00 0.02 0.00 96 1016.4
20260901042004 71 71 0.0 1.0 0.00 0.02 0.00 96 1016.4
20260901041858 71 71 0.0 1.0 0.00 0.02 0.00 96 1016.3
20260901041759 71 71 1.0 1.0 0.00 0.02 0.00 96 1016.3
20260901041659 71 71 0.0 1.0 0.00 0.02 0.00 96 1016.3
20260901041558 71 71 0.0 1.0 0.00 0.02 0.00 96 1016.3
20260901041504 71 71 0.0 1.0 0.00 0.02 0.00 96 1016.3
20260901041300 71 71 1.0 1.0 0.00 0.02 0.00 96 1016.4
20260901041159 71 71 0.0 1.0 0.00 0.02 0.00 96 1016.4
20260901041059 71 71 0.0 1.0 0.00 0.02 0.00 96 1016.4
20260901041004 71 71 0.0 1.0 0.00 0.02 0.00 96 1016.4
20260901040859 71 71 0.0 1.0 0.00 0.02 0.00 96 1016.4
20260901040759 71 71 0.0 1.0 0.00 0.02 0.00 96 1016.4
20260901040659 71 71 0.0 1.0 0.00 0.02 0.00 96 1016.4
20260901040600 72 71 0.0 1.0 0.00 0.02 0.00 96 1016.4
20260901040503 72 71 0.0 1.0 0.00 0.02 0.00 96 1016.4
20260901040400 72 71 0.0 0.0 0.00 0.02 0.00 96 1016.4
20260901040302 72 71 0.0 1.0 0.00 0.02 0.00 96 1016.4
20260901040005 72 71 0.0 1.0 0.00 0.02 0.02 96 1016.4
20260901035901 72 71 0.0 1.0 0.00 0.02 0.02 96 1016.4
20260901035800 72 71 0.0 1.0 0.00 0.02 0.02 96 1016.4
20260901035600 72 71 0.0 1.0 0.00 0.02 0.02 96 1016.4
20260901035505 72 71 0.0 1.0 0.00 0.02 0.02 96 1016.4
20260901035401 72 71 0.0 1.0 0.00 0.02 0.02 96 1016.4
20260901035306 72 71 0.0 1.0 0.00 0.02 0.02 96 1016.4
20260901035201 72 71 0.0 1.0 0.00 0.02 0.02 96 1016.4
20260901035006 72 71 0.0 1.0 0.00 0.02 0.02 96 1016.4
20260901034900 72 71 0.0 1.0 0.00 0.02 0.02 96 1016.4
20260901034801 72 71 1.0 1.0 0.00 0.02 0.02 96 1016.4
20260901034600 72 71 0.0 0.0 0.00 0.02 0.02 96 1016.5
20260901034504 72 71 0.0 0.0 0.00 0.02 0.02 96 1016.5
20260901034401 72 71 0.0 0.0 0.00 0.02 0.02 96 1016.5
20260901034300 72 71 0.0 1.0 0.00 0.02 0.02 96 1016.5